GEFSSGP_500_meanwind_000.txt.gz
Wind_Speed
12 14 13 14 17 14 9 8 8 9 7 7 8 9 8 9 9 11 11 11 11 13 15 16 16 17 16 15 13 12 12 12 14 14 12 11 11 12 13 13 14 16 16 16 17 18 18 19 19
11 12 10 9 14 11 9 10 11 10 9 10 10 8 7 9 9 10 12 14 13 13 13 12 12 13 12 10 9 9 10 10 11 12 13 13 14 14 15 16 17 18 18 18 18 18 18 18 18
9 8 9 11 13 12 11 14 16 13 12 11 9 7 7 9 10 11 13 14 12 11 11 11 11 12 14 14 12 11 9 10 10 10 12 13 15 15 14 15 16 17 18 20 19 18 19 19 20
7 9 9 11 14 13 16 17 15 12 10 8 7 4 5 8 8 9 11 12 12 11 12 12 9 11 13 12 11 12 11 10 9 8 9 10 11 10 9 9 11 13 15 16 17 18 19 21 23
9 10 11 13 16 15 13 11 10 9 5 3 1 2 3 6 7 8 10 11 13 13 11 8 6 8 8 6 6 10 13 12 10 9 8 8 9 8 8 10 12 13 15 16 16 18 20 21 24
9 11 13 14 14 13 12 9 7 6 3 2 4 6 6 7 8 10 13 14 15 13 8 2 6 7 8 8 11 12 12 13 12 10 9 9 11 11 13 15 16 17 17 16 16 18 20 22 25
10 12 17 17 16 14 12 9 8 5 1 2 5 7 9 9 8 9 10 12 15 14 11 4 2 5 8 10 13 11 10 11 11 10 11 12 14 17 18 19 19 19 19 19 20 21 23 24 26
10 11 15 16 15 14 11 9 9 6 5 4 4 7 9 13 12 10 10 11 14 15 11 8 6 3 8 11 11 10 10 10 12 12 13 14 17 19 21 21 19 19 20 21 22 23 24 25 27
8 12 16 18 16 13 10 7 6 10 9 7 7 10 11 12 14 14 11 9 11 12 12 11 10 6 3 10 14 14 13 13 14 15 16 17 19 21 21 19 18 18 20 21 22 23 25 25 27
11 14 17 14 12 12 10 9 6 8 8 8 9 12 11 13 16 18 13 8 10 12 12 11 11 10 5 5 13 14 12 13 15 16 17 19 20 19 18 17 17 17 18 18 19 20 22 23 24
11 15 13 14 14 13 11 12 10 10 10 8 8 11 11 13 15 20 18 10 9 11 12 12 12 11 9 6 5 9 13 16 18 18 19 21 22 21 19 19 19 18 18 18 20 21 22 23 24
14 14 14 15 14 15 15 15 15 14 11 10 11 13 12 13 16 19 19 14 10 9 9 9 10 10 10 10 12 14 18 19 18 21 22 21 20 18 16 17 18 18 18 20 21 22 24 24 24
20 17 17 18 17 20 19 15 15 18 17 14 16 18 16 13 17 18 18 16 11 9 8 8 7 6 8 11 13 13 13 13 15 19 20 20 20 18 19 20 18 17 18 20 21 23 24 24 25
25 21 20 22 22 23 23 19 17 21 19 18 20 23 22 17 20 18 14 15 12 8 7 8 7 6 7 9 10 11 12 12 14 17 18 18 18 18 22 22 20 19 20 22 23 25 26 28 31
28 25 24 26 28 29 26 24 25 27 24 23 24 25 25 22 22 18 13 14 13 8 7 8 8 6 6 9 10 11 12 13 15 17 18 19 20 21 23 22 21 21 23 26 28 30 32 35 37
30 28 27 30 33 33 29 24 32 32 31 30 30 27 24 23 25 22 16 15 14 12 10 9 8 5 6 9 12 13 14 15 17 17 18 18 18 19 20 21 21 22 24 27 30 34 38 41 42
31 31 32 35 37 37 33 30 39 36 34 33 33 31 24 22 26 23 17 16 14 14 13 12 9 10 11 13 15 16 17 19 20 22 22 22 22 22 22 22 22 21 25 31 33 36 40 43 45
32 35 37 39 41 39 39 40 44 41 39 37 35 33 25 20 24 22 18 19 17 16 16 14 13 14 16 16 17 18 21 23 24 26 26 27 27 27 28 28 28 29 34 37 39 40 40 44 46
36 36 38 40 42 40 42 47 49 44 42 40 37 32 30 22 25 25 24 25 23 19 19 17 19 20 20 22 22 22 25 26 26 27 28 31 31 33 35 36 35 34 37 40 42 43 45 48 48
35 36 38 39 40 42 46 48 47 43 42 42 40 33 32 26 26 28 29 31 29 27 25 24 24 24 25 27 28 28 29 31 30 31 32 35 36 36 36 39 39 40 43 44 45 48 50 52 53
35 37 37 37 40 43 47 49 45 44 41 40 40 36 31 29 29 30 30 32 35 30 29 30 30 28 30 30 31 32 33 37 37 36 37 39 41 41 40 43 46 48 49 49 50 54 54 54 57
33 36 38 39 40 42 46 47 43 47 42 39 39 38 33 31 32 31 32 34 33 32 33 34 32 31 32 33 34 36 38 40 42 42 42 44 47 46 47 49 50 52 53 54 56 56 56 56 58
32 34 36 37 38 41 46 48 42 43 42 37 36 37 37 35 37 35 33 31 33 36 37 36 36 34 33 35 38 39 40 42 45 45 48 53 55 52 53 51 46 45 50 53 54 54 56 59 60
29 29 32 34 36 41 40 42 39 30 34 33 33 33 37 38 39 35 35 35 37 37 39 39 39 36 35 37 38 40 43 45 49 49 52 57 53 50 47 47 47 50 52 54 56 57 58 58 59
27 27 28 30 32 33 32 37 35 30 32 32 31 30 31 33 36 39 40 41 40 40 42 43 40 38 35 37 38 42 44 50 56 54 48 44 43 42 39 47 53 54 54 55 57 57 57 57 59
29 30 29 27 24 21 28 32 29 30 29 27 25 24 22 23 25 30 34 39 41 44 44 42 38 36 37 41 41 40 44 46 44 45 42 39 39 40 45 50 52 53 55 56 55 55 57 60 59
26 27 25 29 28 27 28 27 29 26 25 21 20 19 18 20 22 23 28 34 36 38 38 39 40 41 44 44 41 41 43 43 42 43 40 39 41 43 47 52 54 55 54 52 55 57 59 59 57
28 24 24 25 26 26 23 20 17 19 22 18 18 21 21 20 22 25 27 29 31 33 34 38 40 39 42 44 44 42 41 39 38 40 45 42 41 45 50 53 52 50 52 55 57 58 58 56 55
29 30 29 27 26 23 21 20 23 27 25 20 18 19 22 24 28 30 30 30 31 30 32 36 37 39 44 44 42 39 36 33 39 42 39 38 41 47 50 48 49 52 55 56 57 57 55 55 57
31 31 29 27 23 24 24 23 28 31 29 25 20 20 24 28 30 29 27 28 31 34 36 37 36 38 41 36 36 40 40 41 44 41 37 39 44 45 45 47 50 53 55 56 56 55 54 55 57

GEFSSGP_500_meanwind_006.txt.gz
Wind_Speed
18 20 18 16 12 6 6 6 11 20 18 15 14 16 16 17 18 17 17 16 13 15 16 18 16 13 12 13 13 14 16 17 18 19 19 18 17 15 14 14 14 14 15 16 17 18 17 17 18
13 12 11 11 10 11 10 2 20 23 15 10 14 16 14 13 14 12 11 11 10 12 13 15 15 13 12 10 9 9 11 13 14 14 15 16 16 15 15 15 15 15 16 17 18 19 19 19 19
10 8 8 12 17 13 4 11 27 24 10 12 18 14 12 11 10 8 8 10 10 10 11 13 15 16 15 11 9 9 11 11 11 13 14 15 15 15 15 16 16 16 17 18 19 20 21 22 22
8 9 12 16 17 9 3 14 25 20 11 15 16 14 11 9 8 7 10 12 12 11 11 12 14 16 15 11 9 9 10 10 11 12 13 13 13 13 14 14 14 13 12 12 14 16 18 19 20
9 11 18 18 14 4 14 14 15 14 11 12 13 12 10 9 8 9 10 11 11 10 10 11 11 10 9 8 7 7 8 8 9 11 11 12 12 12 12 11 11 11 12 13 14 15 17 17 18
11 15 19 15 6 9 13 13 11 9 7 7 7 11 9 10 10 10 10 11 12 10 10 11 11 8 7 8 8 8 8 9 10 12 13 13 12 12 12 12 14 15 16 17 17 17 17 17 18
12 17 19 10 5 11 11 12 12 8 5 4 6 12 9 12 13 13 12 10 10 11 12 12 12 11 8 7 9 10 11 12 12 12 12 13 12 13 14 16 17 18 20 20 20 20 21 22 22
10 12 18 10 7 11 11 11 13 15 14 5 6 13 11 15 14 14 13 10 10 10 11 12 13 12 9 7 9 12 13 12 11 12 13 14 14 15 16 18 20 20 20 19 20 21 23 24 24
10 11 16 10 7 10 11 10 11 12 10 9 8 13 12 13 14 14 13 11 10 10 11 11 14 14 11 8 9 11 12 12 12 13 14 16 17 18 18 18 19 19 19 18 19 20 20 21 22
12 15 12 5 11 11 10 10 11 11 11 5 12 15 14 14 15 16 15 12 12 12 12 12 13 13 13 12 8 8 11 13 14 15 16 17 17 17 18 18 18 18 18 19 20 19 19 19 19
13 15 11 9 17 20 15 10 12 12 14 12 18 20 16 15 17 18 18 18 16 16 15 14 14 14 14 15 12 9 9 12 14 15 16 16 17 18 19 18 16 16 16 17 19 19 19 19 20
15 18 16 14 17 23 18 12 14 16 17 17 22 25 18 14 20 21 21 22 22 22 21 17 17 17 17 17 16 14 12 12 13 14 16 17 17 18 19 19 18 19 19 20 19 18 17 19 21
19 19 20 19 20 20 18 16 15 18 20 21 21 25 21 19 22 23 23 24 25 25 24 20 19 19 19 18 18 17 16 15 15 17 18 18 18 19 20 21 21 21 22 21 20 21 20 22 23
21 21 22 21 20 20 19 18 18 18 20 21 18 25 24 24 22 24 25 25 26 27 25 22 20 20 20 20 19 19 18 18 16 16 16 18 18 19 19 19 20 21 22 22 22 23 25 24 24
25 24 25 23 21 20 19 19 17 19 21 24 25 26 27 26 25 26 26 25 26 28 27 24 23 21 20 19 21 21 20 19 19 18 19 20 21 23 23 21 22 24 24 26 27 28 28 27 27
28 27 26 23 22 20 19 21 17 20 24 29 29 27 27 28 29 30 27 25 25 27 28 27 25 23 22 21 23 24 24 22 22 21 22 24 23 25 25 24 26 28 28 29 31 31 32 33 36
28 28 26 23 21 20 21 23 20 18 28 33 30 28 30 32 33 36 30 27 26 26 28 29 26 25 25 24 24 24 25 24 24 25 26 29 28 29 29 28 30 31 32 33 34 35 36 38 41
24 23 21 21 19 23 25 26 25 20 30 33 33 32 34 35 36 39 34 30 28 26 28 29 28 28 28 27 26 26 27 27 26 27 29 31 32 33 33 32 35 36 37 38 38 40 42 43 44
23 22 21 20 19 21 29 34 33 27 30 34 36 36 35 36 40 42 37 32 30 28 28 29 31 32 34 33 32 32 32 32 32 33 34 34 35 35 36 37 39 41 43 44 44 46 48 50 52
23 26 28 27 25 27 27 32 36 37 34 32 38 41 38 38 43 43 38 33 31 30 30 31 33 36 38 39 39 39 37 36 36 38 38 39 39 38 37 39 41 43 47 49 51 53 55 57 58
25 27 28 30 30 32 35 37 40 43 38 38 41 45 46 41 45 46 42 35 33 33 34 33 35 39 41 42 44 44 43 41 40 41 42 43 43 42 42 43 45 48 50 51 54 55 58 58 59
24 24 26 28 31 33 33 37 38 37 34 33 35 39 42 36 39 46 42 36 35 35 35 35 38 40 43 45 46 47 47 46 45 46 46 46 45 45 45 46 48 51 52 53 55 54 55 55 56
18 19 22 24 28 33 35 39 38 32 32 32 32 35 38 34 35 43 41 36 35 34 33 36 41 44 46 47 47 48 49 49 49 48 46 46 47 49 49 49 50 51 52 53 54 54 55 56 58
17 19 21 24 26 30 28 30 33 28 29 29 26 31 35 32 34 35 33 33 33 33 34 37 42 45 47 47 47 48 49 49 48 47 47 49 51 51 50 51 51 52 53 53 54 55 55 57 60
19 18 19 20 21 21 17 21 23 20 21 23 24 31 33 34 35 32 31 32 34 34 36 39 42 44 44 46 48 48 48 49 49 50 50 53 55 54 55 54 52 52 52 54 57 59 58 59 62
22 21 19 17 18 17 15 16 18 19 20 24 29 35 37 33 33 33 32 31 31 33 36 38 40 42 44 46 47 47 48 49 49 51 52 53 55 55 55 53 51 52 55 56 58 60 61 63 64
22 23 20 19 19 22 23 23 20 20 26 29 30 31 28 26 27 27 27 26 27 30 32 34 37 39 40 41 42 44 46 47 48 50 51 51 52 53 52 52 53 54 56 58 60 62 64 65 64
24 22 20 23 24 24 20 17 17 19 23 26 30 29 19 18 21 24 25 26 27 30 31 33 34 35 35 36 38 41 43 45 48 48 48 50 52 54 55 54 54 56 58 60 62 62 63 62 62
21 21 22 25 24 23 22 18 21 23 25 27 33 35 19 18 21 24 27 29 32 34 35 35 34 34 36 37 38 40 43 44 45 47 50 53 55 56 55 54 55 56 58 59 59 59 60 61 62
23 25 25 28 28 26 25 21 24 28 28 32 37 38 33 28 24 24 28 31 34 36 37 37 36 38 39 40 42 43 44 44 47 50 53 55 55 55 54 53 53 55 56 57 57 58 60 61 62

GEFSSGP_500_meanwind_012.txt.gz
Wind_Speed
21 19 18 16 16 14 9 10 10 7 9 12 19 24 21 17 14 14 12 11 10 9 10 11 13 15 16 17 18 20 21 22 22 22 22 21 21 21 20 19 18 18 17 17 17 18 19 20 20
17 16 15 15 17 16 14 13 10 9 8 12 19 21 18 14 11 9 8 7 8 8 8 9 10 11 13 15 16 18 19 19 19 19 19 18 18 18 18 17 17 17 17 18 19 20 20 21 22
12 13 14 18 21 19 17 14 7 8 11 15 18 17 13 7 5 6 7 9 10 10 8 8 8 9 11 13 16 17 18 18 17 17 16 16 16 16 16 17 17 18 19 21 21 21 21 22 23
13 15 19 24 23 18 15 13 7 7 13 15 13 10 5 2 5 7 9 11 11 10 9 8 7 7 8 11 14 17 17 17 17 16 15 14 14 14 15 16 18 19 21 21 20 18 17 18 19
15 20 25 26 21 15 12 10 6 7 14 14 9 4 1 2 7 9 10 11 11 11 11 9 7 7 7 8 10 11 12 13 14 13 12 12 12 12 13 15 17 18 18 17 16 16 16 17 19
19 24 28 25 20 16 12 7 2 8 16 13 6 1 1 4 10 12 11 10 11 11 11 10 9 8 7 7 8 7 8 8 9 9 10 11 12 13 15 16 17 17 17 17 18 20 20 20 21
22 27 27 24 19 15 9 3 6 12 16 12 6 1 3 8 12 13 14 12 12 11 10 10 10 10 9 8 8 8 9 9 10 10 11 12 13 14 15 16 17 18 19 20 22 23 23 22 22
26 29 27 24 19 12 5 2 8 14 15 12 8 5 6 8 12 13 13 13 12 11 11 10 9 9 9 9 9 8 9 10 10 11 12 13 14 15 16 18 20 21 22 23 24 24 23 23 23
25 29 28 24 19 14 8 5 9 13 14 13 12 8 6 7 10 12 13 13 12 12 12 11 10 9 8 8 10 9 9 9 9 11 12 14 15 16 18 19 20 20 20 21 21 21 22 22 23
26 28 26 24 21 18 13 9 10 13 14 13 11 11 9 6 8 12 12 12 12 13 14 12 11 10 8 8 9 10 10 9 8 9 11 13 14 15 15 16 17 18 18 18 18 18 19 21 23
26 27 26 25 23 19 14 12 14 16 16 14 13 14 8 7 7 10 12 11 12 13 13 13 13 12 11 10 9 10 11 10 9 9 10 11 12 12 12 12 13 14 14 14 15 17 18 20 20
27 28 27 26 23 19 16 15 18 20 18 16 15 15 14 13 12 12 14 12 12 13 14 14 15 14 13 12 11 11 11 11 11 11 10 10 10 9 8 8 9 10 10 11 12 14 15 17 18
25 28 27 27 25 20 19 22 22 22 20 18 17 17 18 18 15 14 14 16 16 16 15 14 15 15 15 15 14 13 14 14 15 14 11 10 10 11 12 11 11 12 12 12 13 14 15 16 18
27 31 31 29 26 21 23 27 26 25 25 21 18 18 20 22 20 18 17 18 20 19 18 16 16 15 14 14 14 14 16 16 17 17 15 14 14 15 16 16 16 16 17 18 19 19 19 20 21
31 33 30 28 26 22 21 26 29 27 28 25 21 21 23 25 24 22 21 20 23 24 22 20 20 19 17 15 13 13 14 16 17 19 19 18 18 19 20 20 21 22 23 24 25 26 26 27 27
33 32 29 27 27 24 23 21 25 28 30 28 24 23 27 29 29 27 25 24 26 26 25 24 23 24 23 19 17 15 16 18 20 23 24 25 26 26 27 27 27 28 29 31 32 32 33 34 34
34 32 30 28 27 24 24 19 20 27 30 30 27 26 29 32 33 33 31 30 29 28 27 28 27 28 29 27 23 21 20 21 24 26 28 29 30 31 32 33 33 34 34 35 36 38 39 40 41
31 32 32 29 24 24 21 18 17 22 28 31 30 29 31 34 35 36 36 34 32 30 32 33 32 31 32 32 30 27 26 26 28 30 32 32 33 34 36 37 37 37 38 39 40 41 43 44 46
30 32 33 30 28 29 27 23 20 21 26 30 31 31 33 35 36 37 37 37 35 34 35 36 36 35 34 34 32 32 31 31 33 35 36 35 36 38 40 42 41 41 41 42 44 45 46 47 48
32 33 31 29 30 31 30 28 25 23 25 28 30 32 36 38 39 38 39 39 38 37 37 37 38 39 38 36 35 35 35 36 39 40 39 38 39 41 44 45 45 45 45 45 46 47 49 50 51
31 31 30 30 31 33 34 32 27 25 25 27 31 35 39 42 43 43 42 41 40 38 37 38 40 41 40 39 38 37 38 40 42 43 42 41 42 45 46 47 46 46 45 46 48 49 50 52 53
28 27 28 30 33 34 35 35 30 29 29 31 33 36 39 42 43 43 42 38 36 36 37 39 41 42 42 40 39 39 39 41 43 43 42 43 44 45 46 47 47 47 48 49 49 50 51 51 51
25 24 25 28 31 33 33 36 33 32 35 36 38 38 39 42 43 40 35 33 33 36 38 39 41 41 41 40 40 39 38 39 42 43 43 45 45 46 47 48 49 49 50 50 51 52 51 50 51
21 21 25 27 28 26 21 29 28 26 34 39 42 42 41 42 41 36 32 32 34 36 39 41 40 39 38 38 38 38 38 39 41 42 44 46 46 48 49 49 49 49 50 52 53 53 53 54 56
20 22 24 24 22 16 13 20 15 17 26 31 32 31 31 32 32 31 31 32 35 38 41 42 42 37 35 36 37 38 38 39 41 43 44 45 47 47 48 48 48 49 51 52 53 54 55 57 59
21 22 22 21 19 15 17 17 14 18 20 21 21 20 21 24 27 29 30 32 37 41 43 42 40 35 31 33 35 37 39 40 41 43 44 46 47 48 49 49 51 53 53 53 54 56 58 59 60
19 21 21 22 22 20 20 19 18 20 20 20 20 20 21 23 26 29 33 36 40 42 42 39 35 30 30 33 36 39 41 43 45 46 47 48 49 51 51 52 54 54 55 56 57 59 60 60 59
24 21 23 25 25 24 22 20 21 24 25 27 27 25 26 29 31 32 34 36 36 37 36 35 31 30 32 35 39 42 45 47 47 48 49 49 50 50 50 52 54 56 57 57 59 60 61 60 58
26 27 26 25 24 24 23 21 21 22 24 27 29 29 29 32 34 35 36 37 37 37 36 32 30 31 34 38 42 45 48 50 50 50 50 50 51 53 55 56 58 59 59 60 62 63 62 60 59
26 29 28 26 25 23 24 24 25 27 28 29 31 33 34 35 35 37 38 39 37 36 34 30 30 33 37 41 45 48 50 51 50 49 51 53 55 56 57 58 58 59 60 62 63 62 60 59 59

GEFSSGP_500_meanwind_018.txt.gz
Wind_Speed
19 18 17 17 16 15 14 12 9 8 6 5 6 8 7 6 6 5 4 5 6 7 7 7 7 7 7 8 9 9 10 10 11 12 13 14 15 16 16 16 16 16 15 15 15 14 14 14 15
17 18 18 18 18 17 17 14 10 8 7 5 7 8 7 7 6 6 6 6 7 8 8 8 7 6 5 6 6 7 8 9 10 11 12 13 14 14 13 13 14 14 14 15 15 15 16 17 17
16 18 19 20 20 19 19 15 11 9 6 5 7 7 7 8 8 7 7 7 8 8 8 8 7 7 6 5 4 5 6 7 9 10 11 12 13 13 12 12 12 13 14 15 16 17 18 19 19
17 18 19 20 21 21 20 17 13 10 6 5 6 8 8 7 7 7 7 8 8 9 9 9 9 8 7 5 4 4 4 5 7 8 9 10 10 10 10 10 11 12 13 15 16 18 18 17 16
17 19 19 20 23 23 22 18 14 8 4 3 6 9 8 7 7 7 9 10 10 10 11 11 10 9 8 6 5 5 5 5 5 6 6 7 7 8 8 9 11 12 14 15 16 17 17 16 15
17 18 19 21 25 25 22 16 11 6 1 3 7 9 8 8 8 9 12 12 13 13 13 13 12 11 9 7 6 5 5 5 5 5 5 6 7 8 9 11 12 13 14 15 16 17 18 18 18
16 19 20 24 27 26 23 17 11 6 2 4 8 9 8 8 9 11 13 13 14 15 15 15 13 12 10 7 5 5 5 5 5 5 6 7 8 9 10 11 13 14 15 16 18 19 19 20 19
17 20 24 27 28 27 23 17 14 9 5 6 7 7 6 7 9 10 12 13 15 16 16 16 15 13 11 8 6 5 5 5 5 5 6 7 8 9 11 12 14 15 17 18 19 19 20 19 18
19 22 27 30 30 26 22 20 16 11 8 7 6 5 4 5 7 10 11 12 14 16 16 16 16 14 12 10 8 6 6 5 5 5 6 7 9 10 12 13 15 16 16 17 17 18 18 17 16
21 28 32 31 30 27 24 21 17 13 10 8 6 3 2 4 6 8 10 11 12 15 15 16 16 15 14 12 10 8 6 5 5 5 6 7 8 10 11 12 13 14 14 14 15 15 15 15 16
26 33 33 33 29 27 25 22 19 15 10 8 6 4 1 3 5 7 9 10 11 13 14 16 16 16 15 14 12 11 9 7 6 6 6 8 9 9 10 11 11 12 12 12 13 14 15 15 16
32 35 33 32 29 27 26 23 21 16 12 11 9 7 5 4 6 7 8 10 10 12 13 16 18 17 15 14 14 14 13 11 8 7 7 7 8 8 9 10 11 12 12 12 13 15 16 16 17
35 37 33 31 29 27 26 25 22 17 16 15 11 9 8 7 8 8 8 10 12 14 15 17 19 19 18 16 15 15 15 14 11 8 7 6 6 7 8 9 10 11 11 12 13 15 17 18 19
39 38 35 32 31 29 29 27 23 19 18 17 15 12 11 11 11 11 11 11 13 15 17 18 20 21 21 19 18 17 16 16 14 12 10 9 9 10 11 12 13 13 14 15 16 18 19 20 22
40 38 35 34 33 32 30 28 26 23 21 19 18 16 16 15 15 14 14 14 15 17 18 19 21 21 22 22 20 19 18 18 18 16 15 14 14 15 17 19 20 20 20 20 21 22 23 24 25
39 37 37 36 36 35 31 29 28 26 24 23 22 21 20 20 19 18 17 16 17 18 20 21 22 23 24 24 23 22 21 21 21 21 20 20 20 21 23 25 27 27 27 27 26 26 27 27 28
38 38 37 38 37 37 34 30 30 28 27 27 27 27 26 25 24 21 18 18 18 19 22 24 26 27 27 26 25 24 24 24 26 26 26 26 27 27 28 30 32 34 34 32 31 31 31 31 32
38 38 38 39 40 39 37 32 31 31 31 31 32 32 32 30 28 23 21 20 20 21 24 27 29 30 30 29 28 28 28 28 29 30 31 32 32 32 33 34 35 37 36 34 32 31 32 33 34
39 40 40 39 41 42 41 37 34 35 34 35 35 35 35 34 30 27 25 23 22 23 26 28 30 32 32 31 31 32 32 30 30 31 31 32 34 34 35 35 35 34 31 28 28 29 32 34 37
38 39 38 38 41 45 45 43 39 38 38 37 36 36 35 35 34 31 29 26 25 25 27 29 31 33 33 33 34 34 34 31 30 29 30 30 32 33 33 33 33 30 30 30 32 34 36 37 39
37 36 35 37 41 44 45 45 43 40 39 38 36 35 35 34 34 33 31 28 27 26 27 30 33 35 35 36 36 36 37 35 32 30 26 27 29 29 29 30 32 34 37 37 37 38 39 41 42
33 31 33 36 39 41 43 44 42 40 39 38 37 36 35 34 34 33 32 30 29 28 30 33 36 38 37 38 37 38 39 36 33 28 25 24 25 26 27 31 35 37 38 39 40 42 43 44 45
27 28 31 34 37 39 41 42 40 39 38 37 37 37 36 35 34 34 33 32 32 33 34 37 40 40 39 40 39 39 38 35 32 26 22 21 23 26 30 33 36 39 41 43 44 45 46 47 48
27 30 33 34 36 37 36 39 39 36 36 36 37 38 37 36 35 34 34 35 35 37 39 42 41 40 40 40 39 38 37 33 29 24 23 24 26 30 34 37 40 42 45 47 47 48 49 50 52
32 33 34 34 36 35 32 36 37 34 34 35 35 36 36 36 35 34 35 36 38 40 41 40 39 39 39 40 40 39 36 32 30 27 26 28 31 34 38 41 43 46 49 50 51 52 53 55 58
33 34 35 35 34 31 31 33 32 30 30 32 32 32 32 32 33 34 34 35 36 37 36 35 36 37 38 38 37 36 35 33 31 30 30 32 35 39 43 45 48 50 52 53 55 56 58 61 63
32 33 32 33 32 30 31 31 30 27 26 28 29 29 29 29 29 30 30 30 31 31 32 33 34 35 36 36 37 38 38 34 33 33 34 37 40 44 47 50 52 54 56 58 60 61 64 65 65
33 32 32 32 31 30 31 28 26 25 25 26 27 28 28 28 28 28 29 29 30 30 31 33 35 36 38 38 38 39 39 38 38 38 40 43 46 49 52 54 56 59 60 62 64 66 67 66 65
35 35 34 33 31 29 28 27 25 26 27 28 28 28 28 28 28 29 29 30 32 33 35 36 38 40 41 41 40 39 38 38 40 41 43 47 50 52 54 57 59 62 64 66 67 68 67 65 64
36 37 35 34 32 30 29 28 27 27 28 28 28 28 27 27 27 29 30 32 34 36 38 40 42 43 43 43 42 40 39 41 43 44 46 49 52 54 57 60 62 64 66 67 67 66 65 64 64

GEFSSGP_500_meanwind_024.txt.gz
Wind_Speed
25 25 23 20 16 14 11 11 9 6 4 4 5 5 4 3 2 2 1 1 2 2 2 1 1 2 3 5 6 8 8 9 8 8 7 7 7 8 8 8 9 9 8 6 6 5 6 7 8
25 26 25 23 20 14 12 13 11 7 5 4 4 3 2 2 2 3 3 3 4 4 3 3 2 1 1 3 4 5 6 7 7 7 6 6 6 7 7 7 7 7 6 5 5 6 7 9 10
24 25 26 26 25 20 16 16 13 8 4 3 2 1 4 6 6 6 6 6 7 7 6 5 4 3 1 1 3 4 5 5 6 6 5 6 6 6 6 6 6 6 5 5 6 7 9 10 11
23 24 25 26 25 23 21 19 15 8 5 3 2 4 7 9 9 9 9 9 9 9 9 8 7 4 2 1 1 3 4 4 4 4 4 4 5 5 5 5 5 5 5 5 6 7 8 9 10
21 21 22 23 25 24 23 20 16 10 7 5 4 6 9 10 11 10 10 11 11 11 11 10 9 7 5 3 1 1 2 3 3 4 4 4 4 5 5 6 6 6 6 6 7 7 8 9 10
19 18 19 20 23 26 25 21 17 12 9 8 7 9 10 11 11 11 10 11 11 12 12 11 10 9 7 4 2 1 1 2 3 4 4 5 6 6 7 7 8 7 7 8 8 9 9 10 11
16 16 16 20 25 27 26 21 18 14 12 11 11 10 11 11 11 10 10 10 10 11 11 11 11 10 8 6 5 3 3 3 4 5 6 7 7 8 8 9 9 9 9 10 10 11 11 12 12
14 15 15 20 25 26 23 20 18 16 15 14 14 13 11 11 10 9 8 8 9 10 10 10 10 10 9 8 6 6 5 5 5 6 7 8 8 9 10 11 11 11 11 12 12 12 12 12 11
14 15 15 20 24 24 22 21 20 18 17 16 16 15 13 11 9 7 5 6 6 7 8 9 9 9 9 8 8 7 7 6 7 7 8 9 10 10 11 12 13 13 12 12 12 11 11 10 10
14 14 18 22 24 23 22 23 21 19 17 17 16 16 14 11 8 6 3 3 4 5 6 8 9 9 9 8 8 8 8 8 8 8 8 9 10 11 12 13 13 13 12 12 11 11 10 10 10
15 16 21 22 22 21 22 23 22 20 18 16 17 16 15 12 9 6 2 1 2 5 7 8 10 10 10 10 10 10 10 10 10 10 10 10 11 11 12 13 13 13 13 12 12 11 11 11 11
17 19 21 22 21 21 22 23 23 20 18 18 18 17 15 12 10 7 4 2 3 6 8 11 12 13 13 13 13 14 14 14 14 13 13 13 12 12 13 13 13 13 13 13 13 14 14 13 13
20 22 22 23 22 22 22 23 22 21 20 17 15 14 14 13 11 9 6 5 5 8 10 12 14 15 16 16 16 17 17 17 16 16 16 16 15 15 14 15 15 15 15 15 15 16 16 16 16
24 25 25 24 24 23 23 22 22 22 20 19 15 13 13 13 12 10 9 8 8 9 11 13 15 16 17 18 18 19 20 20 19 19 19 19 19 19 18 18 18 19 18 18 18 19 20 21 21
27 27 26 26 25 25 23 21 22 22 21 20 17 14 14 14 13 12 12 11 11 12 13 15 16 17 18 19 20 21 22 23 23 23 24 24 24 24 24 24 23 24 24 24 24 24 25 27 27
29 29 30 30 29 27 24 22 23 22 21 20 19 17 16 15 15 15 15 15 15 15 16 17 18 19 20 21 21 22 23 25 26 27 27 28 29 30 31 30 30 30 31 31 31 30 30 30 30
31 31 33 34 31 30 27 25 25 22 21 21 21 20 18 17 16 17 18 19 19 19 20 20 21 22 22 23 23 25 26 28 30 31 32 33 34 35 36 36 37 38 37 36 34 32 32 32 31
33 34 37 38 35 32 31 31 28 25 24 23 22 22 21 19 19 21 22 23 23 23 24 24 24 24 25 25 26 28 30 33 35 37 38 38 38 38 40 40 41 41 39 37 33 30 29 27 27
36 36 39 42 39 36 35 34 32 30 28 27 26 25 25 24 23 24 25 26 27 27 28 28 28 28 28 29 30 32 34 37 39 39 40 38 38 39 38 40 40 39 38 35 31 26 23 22 22
38 38 40 43 41 41 41 39 36 35 33 31 31 30 30 29 28 28 28 28 29 31 31 31 31 31 31 32 33 36 38 41 44 45 44 41 38 36 34 34 34 34 33 30 24 21 22 23 25
38 39 41 44 46 45 44 41 40 40 38 36 35 35 34 33 32 32 31 30 31 32 33 33 33 34 34 35 36 38 40 44 45 46 42 38 35 31 30 29 31 30 27 24 21 21 23 25 26
36 38 40 42 45 45 48 43 39 44 43 42 41 40 39 37 36 34 33 31 31 31 33 33 34 35 36 37 38 40 42 45 46 43 40 37 31 28 25 25 26 24 23 22 22 24 26 29 30
34 36 38 41 44 46 48 46 38 44 44 45 45 44 43 40 38 36 34 32 32 32 33 34 35 36 38 39 40 42 43 46 46 44 40 33 27 25 23 23 24 23 23 24 26 28 31 33 36
33 35 36 39 41 44 44 44 38 41 44 44 45 45 43 40 38 35 34 32 32 32 33 35 36 38 40 41 42 43 44 44 44 43 39 33 30 27 24 24 25 26 28 29 31 33 36 38 40
33 34 34 35 38 37 39 40 35 43 42 41 41 41 39 37 34 33 32 32 32 33 34 35 37 39 40 42 42 42 41 41 41 40 39 35 32 29 28 30 31 32 33 34 36 38 40 42 44
31 32 33 27 26 27 35 33 36 39 36 35 35 34 32 30 29 28 27 28 30 31 33 35 36 38 40 40 40 39 39 39 40 40 39 37 35 34 33 34 34 35 36 37 40 42 44 46 49
30 31 30 30 27 23 23 30 36 33 31 30 29 28 26 25 23 22 22 23 25 27 30 32 34 36 38 38 38 38 38 39 40 40 40 39 38 37 36 37 38 38 39 41 43 46 48 51 53
28 28 30 31 28 24 23 25 26 29 28 27 26 25 24 23 22 22 22 23 25 27 29 31 33 35 36 37 38 38 39 39 40 40 40 39 38 38 39 40 42 43 44 45 48 50 52 54 56
25 28 30 29 26 23 20 20 26 27 26 25 24 23 23 24 24 25 26 27 28 30 31 33 34 36 37 37 38 39 40 40 40 40 41 41 41 42 42 43 45 46 48 50 52 53 55 56 58
23 26 28 29 28 27 23 24 26 25 24 23 23 23 24 24 25 27 28 30 31 33 34 35 36 37 38 38 39 40 41 42 42 43 44 45 45 46 45 46 48 50 51 53 54 56 56 57 58

GEFSSGP_500_meanwind_030.txt.gz
Wind_Speed
25 21 18 15 13 11 5 3 7 7 12 11 13 12 11 13 11 9 9 7 3 5 5 6 6 6 6 7 8 9 10 11 12 13 14 14 14 13 13 13 13 13 12 12 12 13 12 11 10
26 23 21 18 17 11 3 4 9 11 14 12 12 11 13 12 9 8 7 5 4 5 4 4 4 5 5 6 7 7 8 9 10 11 11 12 12 12 12 11 11 11 12 12 12 12 11 10 10
26 25 24 23 22 14 7 5 9 13 12 12 11 11 11 9 8 7 6 6 5 5 3 3 3 3 4 4 5 5 6 6 7 8 9 9 10 10 10 10 10 10 11 11 11 11 11 10 10
27 27 26 25 25 16 9 7 11 11 9 9 9 9 8 8 7 7 7 7 6 5 4 3 2 2 1 1 2 3 3 5 5 6 7 7 8 8 8 8 8 9 10 10 10 10 10 10 10
28 28 28 28 28 20 13 11 14 12 11 8 8 9 6 7 7 7 7 7 6 6 5 4 3 3 2 2 2 1 2 3 4 5 6 6 6 7 7 7 7 8 8 9 10 10 10 10 10
29 28 28 27 25 20 14 13 16 15 14 12 8 10 7 7 8 8 7 7 6 5 5 5 5 5 5 4 4 3 3 3 4 5 6 6 6 7 7 7 7 8 9 10 11 10 11 11 11
27 28 27 24 21 19 16 15 18 17 16 16 10 10 9 9 9 9 8 7 6 6 5 6 6 7 7 6 5 4 4 4 5 5 6 7 8 9 9 8 9 9 10 11 12 12 12 13 13
23 26 26 25 23 22 19 17 20 20 18 17 12 12 13 11 10 10 8 7 6 5 5 5 6 7 6 6 5 5 5 5 6 7 8 9 9 9 10 10 10 11 12 14 15 15 14 14 14
20 23 21 21 20 18 17 18 19 20 21 19 15 17 16 13 11 10 9 6 4 3 3 4 5 5 5 5 5 6 6 7 7 8 9 10 10 11 11 11 12 13 14 15 16 16 15 15 14
18 17 15 18 18 15 16 19 19 19 22 20 17 16 15 14 12 11 10 7 4 2 0 2 3 5 6 6 7 8 8 8 9 10 10 11 11 12 12 13 13 14 15 16 16 16 16 15 15
17 16 16 17 17 19 18 19 20 21 22 21 17 16 16 15 14 13 11 8 6 4 3 3 5 6 8 9 9 10 10 10 11 11 12 13 13 13 14 14 15 16 16 17 17 16 16 16 15
19 18 18 18 18 23 23 22 23 24 22 19 17 19 18 17 16 14 12 10 8 6 6 6 8 9 11 12 12 12 13 13 13 13 14 15 16 16 17 17 18 18 18 18 18 17 16 16 17
21 20 20 20 19 21 25 26 27 27 25 23 22 23 21 17 16 16 14 12 10 8 8 9 10 12 14 15 16 16 16 16 16 16 17 19 20 20 20 20 20 21 21 21 21 20 19 19 19
23 23 23 21 19 18 23 26 28 27 26 25 23 22 19 16 15 16 15 14 11 9 10 11 12 14 16 18 19 20 21 20 20 21 22 24 26 26 26 25 25 25 25 25 24 24 23 23 22
25 25 24 21 18 16 19 23 26 25 24 24 22 19 17 17 17 17 16 15 13 11 12 13 15 17 19 21 22 23 24 25 25 25 27 29 30 30 31 32 32 30 30 30 30 28 27 27 27
26 26 25 21 18 16 18 20 22 23 24 23 22 20 19 19 19 17 15 16 14 13 13 15 17 18 20 22 24 25 26 27 28 29 30 30 31 34 35 36 36 34 33 33 33 32 31 32 31
26 25 24 21 20 17 18 19 19 20 23 23 22 21 21 19 19 18 18 18 15 14 15 17 19 19 22 24 26 27 28 29 30 32 32 33 34 36 37 37 38 36 35 33 34 34 33 33 33
24 22 22 21 20 19 18 19 19 19 23 23 22 21 21 19 19 20 22 21 17 16 16 19 22 22 24 27 28 29 30 31 32 33 35 34 36 38 37 37 36 34 33 33 33 33 33 32 33
23 18 18 18 19 21 20 22 21 19 22 22 22 21 22 20 21 23 22 23 21 19 19 20 24 26 27 29 30 31 32 32 34 35 36 36 37 37 37 35 34 34 32 30 28 29 30 30 29
29 26 22 18 19 23 23 25 25 22 20 23 24 24 24 24 24 25 24 25 24 22 22 24 27 29 31 32 32 33 33 33 34 35 36 37 38 37 37 34 33 32 31 28 26 25 24 25 25
32 29 25 20 20 27 29 29 30 28 25 26 28 27 25 27 27 27 27 27 27 27 27 28 29 32 33 34 34 34 34 34 35 37 38 38 38 38 35 33 31 31 30 29 27 26 25 24 24
34 32 30 27 25 28 32 31 29 29 30 30 30 30 32 31 29 29 30 30 31 31 32 32 32 34 35 35 35 35 35 36 37 38 39 39 39 39 35 33 31 31 31 30 29 28 27 27 26
33 31 31 33 32 31 30 30 26 25 29 31 33 35 35 32 31 32 34 34 34 35 35 35 35 36 36 36 36 35 36 37 38 39 40 40 40 39 36 34 32 31 31 31 30 30 30 30 30
30 27 26 30 33 37 35 32 27 24 27 31 37 39 37 35 34 34 35 36 37 38 38 38 37 36 36 36 36 36 37 38 40 41 40 41 41 38 37 35 34 33 33 31 31 32 32 32 33
29 27 26 28 33 35 31 32 31 30 33 36 40 42 40 38 36 35 36 38 38 38 38 38 37 37 37 37 37 38 39 40 41 42 41 41 40 39 38 37 36 35 34 34 34 34 34 36 37
28 28 27 21 16 17 20 24 27 34 37 38 40 42 43 43 41 40 39 38 37 36 36 36 36 37 38 38 39 40 41 42 42 42 42 42 41 40 39 39 38 37 36 36 36 37 38 40 41
24 26 26 24 21 18 14 22 29 33 36 38 41 44 46 46 45 43 40 37 35 34 34 34 35 36 37 38 39 40 41 42 42 43 43 43 42 42 42 41 41 39 39 39 39 40 41 42 44
24 21 22 27 26 21 13 19 30 32 32 33 35 40 43 44 43 41 37 34 33 32 32 33 34 36 37 38 39 40 42 42 43 44 44 44 44 44 43 43 43 42 42 42 43 44 45 46 48
20 23 23 23 25 23 18 21 26 29 32 31 31 31 33 35 36 35 33 32 31 32 32 33 34 35 36 38 39 40 42 43 44 45 46 47 47 47 47 47 46 46 46 46 47 48 49 50 51
17 20 22 24 24 25 23 25 30 31 30 29 30 30 29 29 30 30 31 31 31 32 33 34 35 36 37 38 40 42 43 45 46 48 49 50 51 51 51 50 50 50 50 50 51 52 53 54 54

GEFSSGP_500_meanwind_036.txt.gz
Wind_Speed
24 22 20 19 18 14 9 4 5 5 9 11 11 10 12 14 14 13 13 12 10 8 7 7 7 7 7 7 8 8 9 10 10 10 10 11 12 13 14 14 15 15 15 15 15 15 15 15 15
27 25 23 23 22 18 13 7 7 7 9 13 13 12 12 13 12 11 12 11 9 8 7 7 6 6 5 5 6 6 7 7 7 8 8 9 10 11 12 13 14 14 14 14 14 14 14 15 14
29 28 27 26 26 22 17 10 8 4 8 14 16 14 13 11 9 9 10 9 8 7 6 6 5 5 4 4 4 5 5 5 5 5 5 6 7 9 10 11 12 12 12 12 12 12 13 13 14
29 31 30 30 28 25 20 13 9 5 6 14 16 15 14 9 6 7 8 7 6 5 4 4 3 3 3 3 4 4 4 3 3 2 2 3 4 6 7 9 10 10 10 10 10 11 11 12 13
29 32 33 33 31 27 22 16 11 6 8 15 16 16 15 8 5 5 6 5 5 4 3 2 1 2 3 4 4 4 4 3 2 1 1 1 2 4 5 7 8 9 9 9 10 10 11 13 14
27 31 34 33 33 31 25 18 13 9 11 16 17 17 15 8 4 5 4 4 3 2 2 1 2 3 4 5 5 5 4 3 3 2 3 3 3 4 6 7 8 9 9 10 11 12 13 14 16
23 28 30 32 35 34 28 20 14 9 11 16 19 18 17 11 5 4 4 3 3 3 3 4 5 5 6 7 6 6 5 5 5 5 5 5 5 6 7 8 10 11 11 12 12 14 15 17 18
21 24 26 31 36 35 29 22 15 12 13 17 20 18 17 13 7 6 5 5 5 5 5 5 6 6 7 7 7 6 6 6 6 6 6 6 6 7 8 9 10 12 13 13 14 15 17 18 20
20 20 19 26 34 34 31 25 19 16 16 18 20 20 19 14 10 9 7 6 6 5 4 5 5 6 6 6 6 6 6 6 6 6 5 6 6 7 8 9 11 13 14 15 15 16 17 19 20
17 13 13 22 30 35 34 30 24 21 18 19 20 21 19 13 12 11 8 7 6 5 4 4 4 4 5 5 5 5 5 6 5 5 5 5 6 6 7 9 11 13 14 15 16 17 18 20 21
16 12 16 24 30 35 36 33 29 25 22 21 20 20 18 15 13 11 9 7 6 5 5 3 2 2 3 4 4 5 5 6 5 5 5 6 7 6 7 10 12 13 15 16 17 18 19 20 21
17 15 18 24 30 35 36 35 32 27 24 23 21 20 20 17 15 13 11 8 7 6 5 4 2 2 2 3 3 4 5 5 5 5 6 7 7 8 8 10 12 13 15 17 18 18 19 20 20
20 18 19 24 28 32 34 34 33 29 26 26 24 21 19 17 17 14 12 10 9 7 6 5 4 3 1 1 2 3 4 5 5 5 6 7 7 8 9 12 12 14 16 17 18 16 16 18 19
23 22 22 25 27 28 28 29 31 29 29 28 27 23 19 17 17 16 13 11 9 9 7 6 5 5 3 2 2 3 4 5 6 6 6 7 8 9 11 12 14 15 16 18 18 17 15 17 18
27 25 24 24 25 24 25 26 27 29 31 31 28 25 22 19 18 17 16 13 11 11 9 8 7 7 6 5 5 5 6 7 7 8 8 8 10 10 11 13 14 15 16 17 17 16 15 16 17
30 28 25 24 23 23 23 23 26 30 32 30 28 25 22 19 18 19 19 17 14 13 11 10 10 9 8 7 7 6 7 8 9 11 11 11 11 12 12 14 14 15 16 16 16 15 14 14 16
31 28 25 24 22 21 20 19 26 31 32 30 28 25 22 21 20 19 19 19 17 16 13 13 12 11 10 10 10 10 10 11 12 13 14 14 14 14 14 15 16 16 17 16 15 13 14 13 14
31 28 26 23 21 20 18 17 23 29 31 29 28 27 25 23 22 21 20 19 18 17 17 15 14 13 13 13 14 14 15 16 16 16 17 17 17 17 18 18 18 18 17 16 15 14 14 14 14
32 29 26 23 22 21 19 19 22 27 29 27 27 27 25 25 24 24 23 21 19 18 17 15 15 15 15 17 19 20 21 22 22 21 22 22 21 21 22 21 21 20 19 17 16 15 15 16 15
32 30 26 23 23 22 21 21 23 26 26 25 25 26 27 26 25 25 24 23 21 20 17 17 15 17 19 21 24 25 26 27 26 26 26 26 25 24 24 25 23 23 22 19 18 17 17 17 17
33 31 27 24 24 23 23 25 27 28 27 27 26 27 28 28 28 26 24 25 23 21 22 22 20 21 23 25 26 29 30 31 31 31 30 30 28 27 27 28 27 26 23 21 21 20 20 21 20
31 31 29 27 26 24 25 27 29 29 28 29 29 28 28 28 29 29 29 27 26 26 25 24 23 25 26 28 30 32 33 34 34 34 33 31 30 29 30 30 30 27 25 24 24 24 24 24 25
29 30 30 29 28 27 27 29 30 31 31 31 31 30 30 30 30 30 30 30 29 29 28 28 28 30 30 32 34 35 36 36 36 36 34 32 31 31 31 32 30 28 27 27 27 28 28 28 28
29 31 32 31 30 29 29 30 31 32 33 34 33 32 32 32 32 33 33 33 33 32 32 32 34 35 36 37 37 36 37 37 36 36 36 35 34 33 32 32 31 31 30 30 31 31 32 32 33
28 31 33 33 32 31 29 31 32 32 33 35 36 36 36 35 35 35 35 35 35 35 36 37 38 39 40 40 40 39 39 38 38 37 36 35 33 31 32 33 33 33 33 33 34 34 35 36 37
25 29 32 33 34 33 30 32 33 31 31 33 36 38 39 38 37 37 37 37 38 39 40 41 42 42 43 43 42 41 39 38 37 37 34 33 33 34 34 34 35 34 34 36 37 38 39 40 41
21 24 28 31 34 34 34 36 35 33 32 34 36 38 39 39 38 38 38 39 41 43 44 44 45 46 45 45 43 41 39 38 36 35 35 35 35 36 36 38 37 37 38 40 41 42 43 44 45
19 21 24 28 31 33 34 35 37 35 34 35 36 37 39 39 39 39 40 41 42 43 45 46 47 47 46 45 44 41 40 38 38 37 37 37 37 38 39 39 40 41 42 44 45 46 47 48 49
18 22 25 27 29 30 32 34 37 36 33 32 33 35 38 40 40 40 41 41 42 43 45 46 47 47 46 45 43 42 41 40 39 39 40 40 40 41 42 43 44 46 47 48 48 49 50 51 52
20 23 25 27 29 30 33 37 38 36 34 31 31 32 36 39 40 41 42 43 43 44 45 45 45 45 44 43 43 42 42 43 43 43 43 43 44 45 46 47 49 50 51 52 52 53 54 55 56

GEFSSGP_500_meanwind_042.txt.gz
Wind_Speed
25 26 25 23 20 17 15 14 12 11 10 8 5 2 1 2 4 6 7 6 7 7 7 7 8 9 9 8 7 6 5 5 4 4 5 5 6 6 7 7 8 9 9 10 11 12 13 13 13
26 27 27 27 24 20 18 16 14 12 11 8 5 2 1 3 5 7 7 6 7 7 6 6 7 7 7 6 6 5 4 3 3 3 4 4 4 4 5 5 6 7 8 8 9 10 10 11 11
26 28 30 30 27 23 19 18 16 13 10 8 5 2 2 4 5 8 7 6 6 6 5 6 6 5 5 5 5 5 4 3 2 2 2 2 2 3 3 4 4 5 6 7 7 8 8 9 9
24 28 30 31 30 26 22 20 18 15 13 10 6 3 2 4 6 7 6 5 5 5 5 5 4 4 5 5 5 5 4 4 3 2 1 0 1 1 2 3 3 5 6 6 7 7 7 8 9
24 27 30 32 32 29 26 22 20 18 16 12 8 4 2 4 5 6 5 4 4 4 4 4 3 4 4 5 5 5 6 5 4 3 3 2 2 2 2 3 3 4 6 7 8 8 8 9 9
25 24 26 28 32 32 29 26 23 21 18 15 11 6 3 4 5 5 4 3 3 4 4 4 4 5 6 6 7 7 7 6 6 5 4 3 2 2 2 2 3 5 6 8 9 9 9 9 10
26 24 22 24 32 34 32 29 26 23 19 16 13 9 5 4 5 4 2 2 3 4 5 6 6 7 8 9 9 9 8 8 7 6 5 4 3 2 1 2 3 5 7 9 10 10 10 10 10
27 24 20 22 31 35 35 33 29 26 22 18 14 11 7 4 5 3 1 3 4 5 6 7 8 9 10 10 10 10 9 8 7 6 5 3 2 0 1 2 4 6 8 9 10 11 11 11 11
29 24 19 19 28 36 38 36 33 31 26 20 16 14 10 5 5 3 2 3 5 5 6 7 9 10 10 10 10 10 9 8 7 6 5 3 1 1 2 3 5 7 8 10 11 12 12 12 12
31 24 17 18 27 38 42 40 37 34 29 23 18 15 11 6 4 3 3 4 5 6 6 7 8 9 10 10 10 9 9 8 7 6 5 3 2 2 3 4 5 7 9 10 12 13 13 12 12
32 26 21 22 29 39 45 44 41 38 32 27 22 17 12 8 5 4 4 5 6 6 6 7 8 8 9 9 9 9 9 8 7 6 5 4 4 4 4 5 6 8 9 11 13 13 13 12 12
32 28 25 25 30 38 46 46 44 41 34 30 25 20 15 10 7 6 6 7 7 6 7 7 8 8 8 9 9 9 9 8 7 7 6 6 6 5 5 6 7 8 9 11 12 13 13 12 11
33 30 28 27 30 35 44 47 45 41 36 31 27 22 16 12 10 10 9 8 8 7 8 8 9 9 9 9 9 9 9 9 8 8 8 7 7 7 7 8 9 9 10 11 12 12 13 13 12
34 32 29 28 29 32 40 46 46 41 37 33 29 24 20 16 13 12 10 9 9 9 10 10 11 11 10 10 10 10 10 9 9 9 8 8 8 8 9 9 10 11 12 13 12 13 14 14 13
34 32 29 27 29 31 36 42 44 41 38 35 31 28 24 19 16 14 12 11 11 12 12 12 13 12 12 11 11 11 11 10 10 10 9 9 9 9 10 11 12 12 13 13 13 13 14 14 13
34 32 29 27 28 31 34 38 41 42 40 37 34 31 27 23 19 16 15 14 13 14 14 14 14 13 14 13 13 12 12 11 11 11 11 11 12 12 12 13 14 14 15 15 15 15 15 15 14
33 32 30 27 27 30 32 35 39 41 41 39 36 33 29 26 23 19 16 15 14 16 17 15 16 16 16 16 15 14 14 14 14 14 14 15 15 16 16 17 17 17 17 17 17 17 17 17 16
33 32 30 28 28 29 30 32 36 39 40 39 37 34 30 27 24 20 18 16 16 17 19 19 18 18 18 18 18 17 17 17 17 17 18 19 19 19 20 20 21 21 21 20 19 20 20 19 19
32 31 30 29 29 29 29 31 34 36 37 38 37 34 30 27 25 22 20 18 17 17 16 16 18 19 20 20 19 19 20 21 21 22 22 22 23 23 23 24 24 25 24 23 23 23 22 21 21
30 30 29 29 29 29 30 30 33 36 36 35 35 34 31 28 26 25 22 20 19 16 15 14 15 18 21 21 21 23 23 23 23 23 24 25 25 26 27 28 28 28 27 26 25 25 24 24 23
29 29 28 28 29 28 27 28 31 34 35 34 34 34 32 30 27 25 24 22 19 17 16 16 16 18 21 22 23 24 25 26 25 24 25 26 27 28 29 29 28 28 28 27 27 28 25 25 25
28 28 28 28 30 29 27 26 28 30 32 32 32 33 33 31 28 27 25 24 21 19 19 19 19 19 21 23 25 26 26 26 27 28 27 28 29 30 30 30 30 29 29 29 28 27 27 26 26
26 28 28 29 29 29 28 26 26 27 29 30 30 30 31 31 29 27 27 25 23 23 23 23 23 24 25 27 29 29 29 30 31 30 30 29 29 29 31 32 32 30 29 29 29 28 28 28 29
27 29 29 30 30 29 28 28 28 28 28 28 29 29 30 31 30 29 28 27 27 26 26 25 26 26 28 30 31 32 32 33 33 33 32 31 30 30 32 33 31 30 30 30 31 31 30 30 31
27 28 29 30 30 30 29 29 30 30 30 30 30 30 31 32 32 31 31 31 31 30 30 29 29 30 31 34 34 34 36 37 36 36 34 33 32 32 34 33 32 32 32 32 33 33 33 33 34
26 27 28 29 30 30 30 31 31 31 32 32 32 32 33 33 33 33 32 32 32 31 32 32 32 34 35 37 38 39 40 40 39 39 38 35 35 35 33 34 34 34 34 34 35 35 36 36 37
24 26 27 28 29 30 32 32 33 33 34 34 34 35 35 35 35 35 35 35 34 35 36 37 37 38 40 41 41 41 41 40 40 40 39 37 36 35 35 36 36 36 36 37 38 38 38 39 40
23 25 27 28 28 29 32 33 33 34 34 36 37 37 38 39 39 39 39 39 39 40 41 42 42 42 43 44 44 45 45 44 44 42 40 39 38 37 38 38 38 38 39 40 41 41 42 43 44
22 23 25 27 28 29 31 33 34 35 36 37 37 38 39 40 41 41 41 42 43 43 44 45 45 46 46 45 45 46 46 45 44 42 41 41 41 40 41 41 41 42 43 43 44 46 47 48 48
21 22 23 25 26 28 30 32 34 36 37 38 38 39 41 42 43 43 44 44 44 44 45 46 47 48 48 48 47 46 45 45 45 45 44 44 43 43 44 45 46 48 48 48 48 50 51 52 52

GEFSSGP_500_meanwind_048.txt.gz
Wind_Speed
16 19 23 24 22 19 16 21 17 16 15 14 14 15 14 12 11 10 9 8 9 8 8 8 8 8 8 8 9 9 9 9 9 8 8 7 6 6 5 5 4 4 4 4 5 5 5 4 4
16 19 23 27 25 18 19 23 20 18 16 14 15 15 14 13 11 11 9 8 9 9 9 8 8 8 8 9 9 10 10 10 9 9 8 7 7 6 6 5 5 5 5 5 5 5 5 4 4
19 20 23 28 30 23 20 26 23 19 17 15 15 14 13 13 12 11 9 8 8 9 9 8 8 8 8 9 10 10 11 11 10 9 8 8 7 6 6 5 5 5 5 5 5 5 5 5 5
22 22 23 27 31 30 29 29 25 21 20 17 15 13 12 11 10 9 9 8 9 9 9 8 8 8 8 9 10 11 11 11 11 10 9 8 7 6 6 5 5 4 4 4 4 5 5 6 7
26 24 23 25 31 33 35 31 27 24 22 19 15 13 11 9 8 7 8 9 9 9 9 9 8 8 9 10 11 11 11 11 11 10 9 8 7 6 6 5 4 4 3 4 4 5 6 7 8
30 26 24 23 29 34 36 33 29 26 24 20 17 14 11 9 8 7 7 8 9 9 9 9 9 9 9 10 11 12 12 12 11 10 9 8 7 6 5 4 4 3 3 4 5 6 8 9 10
33 30 26 24 27 34 36 35 32 29 25 22 18 14 12 10 9 8 8 8 9 9 10 9 9 10 10 11 12 12 12 11 11 10 9 8 6 5 5 4 3 2 3 4 6 7 9 10 11
35 33 29 26 27 33 37 38 35 32 29 24 20 16 14 11 9 8 8 8 9 10 10 10 10 11 11 12 12 12 11 11 10 10 9 7 6 5 4 3 3 3 4 5 7 8 10 12 12
37 36 32 28 28 32 40 40 37 35 31 26 23 19 15 12 11 9 8 7 9 10 11 11 11 12 12 12 12 12 11 11 10 9 8 8 7 6 4 4 3 4 5 7 8 10 11 13 13
39 38 33 32 31 34 39 39 39 37 33 29 25 21 17 14 12 10 9 8 9 10 12 12 11 12 12 12 12 11 11 10 10 9 9 8 7 6 5 5 5 5 6 8 10 11 12 13 13
40 38 37 35 31 32 35 39 39 38 36 32 28 24 19 15 13 11 10 10 10 11 12 12 12 12 12 12 11 11 10 10 10 10 10 10 9 8 7 7 7 7 8 9 11 12 13 14 14
37 39 38 35 34 33 34 37 39 39 37 34 31 26 20 17 14 12 11 11 11 11 11 11 11 12 11 11 11 10 10 10 11 11 11 11 11 10 9 9 9 9 9 11 12 13 14 14 14
36 38 38 36 35 33 33 34 36 37 36 36 33 28 22 18 15 13 13 13 12 12 12 12 11 11 11 11 11 11 11 11 11 12 12 12 12 12 11 11 11 11 12 13 13 14 15 15 15
34 36 37 36 34 32 31 32 33 35 36 37 34 30 26 21 17 14 13 14 14 14 13 13 12 11 11 12 11 11 12 12 13 13 14 14 14 14 14 14 14 14 14 15 15 15 15 16 15
30 33 35 34 33 32 31 30 31 33 36 36 35 31 28 23 20 17 15 15 15 15 15 14 14 13 12 13 13 13 13 14 14 15 15 16 16 17 17 17 17 17 17 18 18 18 18 18 18
28 29 31 33 32 31 30 28 30 32 34 36 35 32 28 24 22 21 18 17 17 17 16 16 15 14 14 14 15 15 15 15 16 16 17 18 19 19 20 21 21 21 21 21 21 22 21 21 20
26 27 29 31 31 30 29 27 30 30 31 35 36 33 29 27 25 23 21 19 19 19 19 19 18 17 16 17 17 17 17 17 18 19 19 21 22 24 24 25 25 26 26 26 26 25 25 24 23
26 26 27 30 31 30 28 28 28 29 29 32 35 34 32 29 27 25 24 23 22 21 21 22 21 21 20 19 19 19 19 20 20 21 22 24 26 28 29 29 30 30 30 29 29 28 27 27 25
26 26 26 29 30 29 27 26 27 29 29 31 33 35 34 32 30 28 27 26 25 24 23 23 24 24 23 21 21 21 22 23 24 25 25 27 29 31 32 32 32 31 31 31 29 28 28 29 27
24 24 25 27 28 28 27 25 26 28 29 31 33 35 35 34 32 30 30 28 27 27 25 25 25 26 25 25 25 26 26 26 27 28 28 30 32 34 35 35 34 34 32 30 29 29 28 27 28
23 24 25 27 28 27 25 24 26 28 29 30 32 34 34 34 33 32 31 31 29 29 27 26 27 27 27 28 29 28 28 28 29 30 31 33 34 35 35 34 33 32 30 29 29 29 29 27 26
22 23 25 26 26 25 25 21 26 27 29 30 31 32 32 33 33 34 33 33 32 31 29 29 29 29 29 31 31 30 30 31 32 33 33 34 35 35 35 33 32 31 29 29 29 30 29 28 27
22 24 24 25 26 26 26 23 24 26 28 29 30 31 31 32 34 35 35 34 34 34 33 31 32 32 32 33 33 33 33 33 34 35 35 35 35 36 34 33 32 31 30 30 29 29 29 28 29
22 23 23 24 24 24 26 24 24 25 25 26 28 29 30 31 33 35 36 36 35 34 33 34 35 33 33 34 35 36 37 36 36 35 36 36 36 36 37 35 33 31 30 29 30 31 31 31 31
21 21 19 20 21 21 26 25 26 25 23 23 24 26 27 28 30 32 34 35 36 35 34 34 34 34 34 35 36 38 38 37 36 37 37 37 38 39 39 36 34 33 32 33 32 32 33 34 35
19 21 17 14 17 20 25 26 27 25 23 23 23 24 25 26 26 28 31 33 34 35 36 35 35 35 35 36 37 38 38 39 40 39 39 38 39 40 41 39 37 35 35 35 35 34 35 36 37
19 19 20 19 17 17 23 26 26 25 24 23 24 24 25 25 26 27 29 31 33 35 36 37 37 38 39 40 41 41 41 43 43 42 42 42 42 43 43 42 39 39 39 38 38 38 38 39 40
18 19 21 18 14 16 21 25 26 26 25 25 25 26 26 27 28 29 31 32 34 36 37 38 39 41 42 43 43 42 43 44 44 45 45 44 46 46 45 45 44 43 42 42 42 41 41 43 43
15 17 18 17 16 14 16 22 25 26 25 25 27 28 28 29 30 31 32 34 36 37 38 39 41 42 43 44 44 45 46 46 47 46 47 48 48 49 48 47 46 46 45 46 46 45 45 45 47
15 16 17 15 17 18 15 20 22 24 25 27 28 29 30 32 32 34 34 35 37 38 38 40 41 42 44 45 46 47 47 47 48 48 49 49 49 49 49 48 48 48 48 48 48 47 46 47 50

GEFSSGP_500_meanwind_054.txt.gz
Wind_Speed
14 12 15 18 17 14 10 11 16 11 10 13 16 17 18 19 19 16 14 13 12 13 13 13 13 13 13 13 12 12 12 12 12 12 12 12 12 11 10 10 9 9 8 8 7 7 7 7 7
18 16 17 19 19 16 13 18 18 12 14 15 18 19 21 23 21 19 16 15 14 15 14 14 14 14 14 14 14 13 12 12 12 12 12 12 12 11 10 9 8 7 7 6 6 6 6 7 7
22 20 20 21 19 18 19 24 19 11 13 17 19 20 23 23 19 18 18 18 17 17 16 15 15 15 15 15 14 13 12 12 12 12 12 11 10 10 9 8 7 6 5 5 5 5 5 6 6
26 25 23 22 18 18 21 27 20 13 10 14 18 19 22 21 20 19 19 19 18 17 17 16 16 16 16 15 14 13 12 12 12 12 11 10 9 8 8 7 6 5 4 4 4 5 5 6 6
30 29 27 23 19 19 22 27 24 13 11 14 17 21 22 19 18 17 17 17 17 16 16 16 16 16 16 15 14 13 12 12 11 11 11 10 9 7 6 5 5 4 4 4 4 5 5 6 7
33 32 31 25 21 20 23 28 23 15 11 13 16 22 23 18 16 16 15 15 14 14 15 15 16 16 16 15 14 13 12 11 11 11 10 9 8 7 5 5 5 5 4 4 5 5 6 7 8
33 34 33 28 25 22 23 28 23 17 14 17 20 24 26 19 16 15 15 14 13 13 14 14 15 16 16 15 14 13 12 11 11 11 10 9 7 6 5 5 5 5 5 5 5 6 6 8 9
32 36 36 33 29 25 24 27 26 25 22 23 26 28 26 17 16 14 15 15 13 12 13 14 14 15 15 14 13 12 12 11 11 11 10 9 7 6 5 5 5 6 6 6 6 6 8 9 10
33 37 38 35 31 26 26 29 30 29 25 23 26 32 28 19 15 14 15 14 13 12 13 13 14 15 14 13 13 12 12 12 11 11 10 8 7 6 6 6 6 7 7 7 7 8 9 10 10
33 37 36 35 32 27 26 30 30 26 27 24 25 31 28 22 17 15 15 14 13 12 12 13 14 14 13 13 12 12 12 12 11 10 9 8 7 7 7 7 8 8 9 9 9 9 10 11 11
32 34 33 35 35 32 30 30 27 24 27 24 23 27 27 23 20 17 16 14 13 12 12 12 13 13 13 13 12 12 11 11 11 10 9 9 8 8 8 9 9 10 10 10 11 11 12 13 13
31 32 34 36 37 37 36 35 30 25 26 24 23 25 25 22 20 18 17 15 13 12 12 12 12 13 13 13 12 11 11 11 10 10 10 10 9 9 9 10 10 11 12 12 13 14 14 15 16
28 31 33 37 40 42 42 40 36 31 29 30 31 29 25 21 20 18 18 16 15 13 12 12 12 12 12 13 12 11 11 11 10 10 11 11 11 11 11 11 12 13 13 14 15 16 17 18 18
26 29 33 36 39 42 43 41 39 35 32 30 31 31 28 24 21 20 20 17 15 14 12 12 13 13 13 13 13 12 12 12 11 11 11 11 11 12 12 13 14 15 16 17 18 19 20 21 22
27 29 31 33 35 37 39 39 37 33 33 31 30 30 30 27 24 23 21 18 16 14 13 13 13 14 14 14 14 13 13 13 13 13 13 13 13 14 15 15 17 18 19 20 22 23 23 24 25
24 25 26 26 28 31 35 36 33 31 31 31 29 29 30 29 27 25 23 20 17 14 13 14 15 15 15 15 15 15 15 15 15 15 15 15 16 16 17 18 19 21 22 24 25 26 27 28 28
17 17 18 17 20 25 30 30 27 26 29 29 28 28 28 29 29 29 27 24 21 17 15 16 16 16 17 17 17 17 17 17 17 17 17 18 19 20 20 21 22 23 25 27 28 29 30 30 30
7 10 11 12 17 21 24 26 24 23 25 27 27 26 28 31 32 33 30 27 23 21 19 18 18 18 19 19 19 19 19 20 20 21 21 21 22 23 23 24 25 26 27 29 31 31 31 31 32
13 13 13 13 18 19 20 22 24 23 25 26 26 26 29 31 33 34 33 29 26 23 20 19 20 20 20 20 21 21 22 23 24 25 25 25 26 26 27 27 27 28 29 30 31 32 32 31 31
16 15 15 16 17 18 19 22 24 24 25 27 28 27 31 33 36 35 32 29 29 26 23 21 21 21 21 21 23 25 26 27 27 28 29 29 29 29 29 30 31 32 32 32 31 30 31 32 32
19 18 16 14 14 17 20 22 24 26 27 28 29 29 33 34 33 34 31 30 27 26 24 23 23 23 23 23 23 26 28 29 29 30 31 32 33 33 32 33 34 35 35 32 31 30 31 31 31
15 15 16 15 15 15 17 20 24 26 29 30 31 32 31 31 32 29 28 30 28 27 26 24 24 25 26 25 26 27 28 30 31 33 35 36 34 34 35 34 36 37 36 33 30 29 31 32 30
13 13 15 16 17 18 18 19 21 24 27 29 30 30 30 30 29 29 29 30 30 29 28 27 27 28 28 29 29 31 32 33 34 35 36 37 37 37 36 38 38 37 37 34 32 30 29 30 29
14 14 15 15 17 19 19 20 23 24 25 28 29 28 28 27 28 28 28 30 30 30 31 30 30 31 31 31 32 34 35 37 37 37 38 38 38 36 36 38 38 37 36 35 33 32 32 32 32
14 15 12 11 14 16 16 21 28 27 23 24 27 27 27 27 27 27 29 30 31 32 32 32 33 34 34 35 36 36 38 39 40 39 38 37 37 35 35 37 37 35 35 35 35 35 35 34 34
13 16 16 13 13 13 16 25 29 29 24 22 23 25 26 27 27 28 29 30 31 33 34 36 37 37 37 37 39 39 39 40 41 41 40 39 39 40 39 39 38 37 37 37 37 37 38 37 37
12 16 16 16 15 16 21 28 29 28 25 23 23 23 24 26 27 28 30 31 33 34 36 38 39 38 38 39 39 39 40 42 43 43 42 42 42 42 42 42 42 40 41 41 41 41 41 41 41
13 14 14 16 14 16 22 26 26 25 25 25 25 26 27 27 27 28 29 30 32 34 35 37 38 38 39 40 40 40 41 42 42 42 42 43 43 45 45 44 44 44 44 45 44 44 43 44 45
15 17 17 16 15 14 16 20 26 26 25 25 26 27 28 28 27 27 28 29 31 33 34 35 36 38 39 40 41 41 42 44 44 44 45 46 47 47 47 47 47 47 47 47 47 48 48 49 48
13 15 18 19 17 14 15 19 17 18 19 20 23 25 27 29 29 29 30 30 31 33 34 35 37 38 39 41 42 42 43 44 45 45 46 48 48 49 49 49 49 49 50 49 49 49 50 51 52

GEFSSGP_500_meanwind_060.txt.gz
Wind_Speed
22 21 19 17 17 17 16 18 20 17 15 14 13 12 12 12 11 9 10 10 8 7 7 8 9 10 11 12 13 13 12 11 10 10 10 10 10 10 11 11 10 9 9 8 8 7 6 6 6
25 24 23 20 18 16 17 21 22 19 17 17 15 15 13 11 10 10 11 11 10 10 9 9 10 11 12 13 13 13 13 12 12 11 10 10 10 10 10 10 9 8 8 7 6 5 5 5 5
28 27 27 24 19 15 19 24 25 21 18 18 17 17 14 10 10 10 12 12 12 12 11 10 10 11 12 13 13 14 14 13 13 11 10 10 10 10 9 8 8 7 6 5 4 4 4 4 4
28 30 29 27 20 17 21 25 28 25 21 20 19 17 12 10 9 10 11 11 11 11 11 10 10 11 12 13 14 14 14 14 13 11 10 10 9 8 8 7 6 6 5 4 3 3 3 3 4
28 30 31 28 23 21 22 26 29 27 23 21 20 19 13 10 9 9 10 11 10 9 10 11 11 11 12 13 13 14 14 14 12 11 10 9 9 8 7 6 5 5 4 3 3 2 3 3 4
27 30 31 29 26 25 25 28 30 29 25 24 24 21 17 11 8 8 9 10 8 8 9 10 11 11 12 13 13 13 13 13 12 11 11 9 8 7 6 6 5 4 4 3 3 3 3 3 4
28 30 30 30 30 29 28 31 32 30 27 26 27 26 19 13 9 8 9 10 9 8 8 10 10 11 12 13 13 13 13 13 12 12 11 9 8 7 6 6 5 4 4 4 3 3 3 4 4
30 31 30 30 31 31 32 35 33 31 29 28 28 26 21 16 11 8 9 11 9 8 9 10 10 11 12 13 13 14 13 13 13 12 11 10 8 7 7 6 5 4 4 4 4 4 4 4 5
31 32 29 29 31 32 35 37 35 32 31 31 29 27 23 19 12 10 9 10 10 10 10 10 11 12 12 13 13 13 13 13 13 12 11 10 9 8 7 7 6 5 5 5 5 5 5 5 5
32 31 28 29 32 34 38 40 38 35 32 31 28 24 23 20 15 10 10 11 11 10 10 10 11 12 12 13 14 14 14 14 13 12 11 10 9 9 8 7 7 6 6 6 6 6 6 7 7
32 31 29 31 33 36 39 41 40 37 34 30 27 24 21 19 17 12 12 12 12 10 9 10 11 11 12 13 14 14 14 14 13 12 12 11 10 9 8 8 8 7 7 7 7 8 8 8 9
31 30 30 31 34 37 40 43 42 39 35 33 29 25 21 19 16 13 13 12 12 10 10 10 10 11 12 13 14 14 14 15 14 13 12 12 11 10 9 9 9 8 8 9 9 9 10 11 12
30 30 30 31 34 37 41 43 43 40 37 35 31 25 20 18 14 12 14 13 12 11 11 11 11 11 13 13 14 15 15 15 14 13 13 13 12 12 11 11 10 10 10 10 11 12 13 14 15
27 29 30 30 33 36 40 43 43 40 37 35 31 25 20 16 14 13 12 12 12 12 12 13 12 12 13 14 14 15 15 15 15 14 14 14 14 13 13 12 12 12 12 13 13 15 16 16 17
24 26 26 27 29 31 36 41 43 40 37 35 32 27 23 19 17 16 15 14 14 14 14 14 13 13 14 14 15 15 16 16 16 15 15 15 15 14 14 14 14 14 15 15 16 17 17 18 20
21 22 22 21 24 26 32 37 39 40 38 36 33 30 26 24 21 20 20 18 17 16 16 16 14 15 15 15 16 16 16 16 16 16 16 16 16 16 15 16 16 16 17 18 19 20 20 20 21
17 17 17 17 19 21 27 31 32 36 39 37 35 33 30 28 27 25 23 21 18 19 19 19 18 17 17 17 17 17 17 17 17 17 17 17 17 17 17 18 18 19 20 21 21 22 22 22 23
13 14 15 16 16 17 20 22 25 31 36 37 37 36 33 30 29 28 27 25 23 22 23 24 21 19 19 19 19 18 18 18 18 18 19 19 19 19 19 20 20 21 22 24 24 25 24 24 25
14 15 15 15 14 14 16 18 22 26 30 33 35 36 35 32 31 31 30 29 28 27 27 26 23 21 20 20 20 20 19 20 20 19 19 19 20 21 21 22 23 24 25 26 27 28 27 26 25
15 14 13 15 14 13 15 18 20 24 27 29 31 33 34 33 32 32 32 31 31 32 31 27 25 24 23 22 22 22 21 20 20 20 20 21 22 23 25 25 25 26 27 27 26 26 26 26 25
15 13 12 14 15 14 16 18 18 22 24 26 28 30 31 31 31 32 32 31 32 33 31 30 27 25 24 25 24 22 21 20 21 21 22 23 24 25 25 26 27 28 29 27 27 27 27 26 27
13 13 13 14 16 17 17 17 18 20 21 23 25 27 28 28 30 31 32 32 31 31 31 30 29 28 27 26 25 25 24 24 24 24 25 25 26 26 27 28 29 29 28 27 27 28 28 27 26
12 15 15 16 16 18 19 19 19 20 21 22 23 24 26 27 28 30 31 32 32 33 34 32 30 29 27 26 27 27 27 26 25 26 27 26 26 26 27 28 29 29 27 26 25 26 26 26 26
12 15 17 18 18 17 18 21 20 19 20 21 24 25 27 27 29 30 32 33 33 33 31 30 29 28 27 27 28 28 28 27 27 27 27 26 27 28 28 29 28 28 27 26 25 25 26 27 28
13 14 16 17 18 17 18 20 21 22 20 21 23 25 26 28 29 30 31 32 32 32 29 27 28 28 27 27 28 28 29 29 28 28 28 27 28 29 30 30 29 30 29 28 27 27 27 28 29
14 14 14 16 17 18 20 22 22 22 22 23 23 24 25 26 28 28 29 30 29 29 29 28 27 27 28 29 29 29 30 31 30 29 28 29 29 30 31 30 30 30 30 30 31 31 32 33 33
14 13 14 16 17 17 19 21 21 22 23 24 25 24 24 26 26 27 28 28 28 28 28 28 29 29 30 31 31 30 31 31 32 31 31 31 32 32 32 31 32 33 33 34 35 35 36 37 38
13 13 14 16 17 16 17 20 22 21 21 24 24 25 25 25 25 25 26 27 27 27 28 28 29 30 30 30 30 31 31 31 32 32 32 33 34 34 34 35 35 37 37 38 38 39 40 41 42
14 14 14 14 14 15 16 16 18 20 21 22 22 22 25 26 25 25 25 25 26 27 28 29 30 31 31 32 32 33 33 33 33 33 34 35 36 37 38 38 39 39 40 41 42 42 43 44 45
13 13 14 15 15 16 17 16 13 14 14 15 18 20 22 24 25 26 27 27 27 28 29 29 30 31 32 32 33 33 33 34 34 35 36 37 38 39 40 41 41 42 43 44 44 44 45 46 47

GEFSSGP_500_meanwind_066.txt.gz
Wind_Speed
25 24 23 21 19 17 16 18 21 22 23 22 20 18 17 16 13 12 10 8 8 6 5 5 6 7 7 7 7 7 7 7 7 6 6 6 6 5 5 5 6 6 7 7 7 7 7 6 6
25 25 25 24 22 18 16 19 22 24 25 24 22 20 18 17 15 12 11 11 10 8 7 7 8 8 8 8 8 8 8 8 8 8 7 7 6 6 6 6 5 5 5 6 6 5 5 5 5
25 26 27 26 23 19 18 21 24 25 26 25 24 21 20 19 17 13 12 12 11 10 9 9 10 10 9 9 9 9 9 9 9 9 8 8 7 7 6 5 5 5 5 5 5 4 4 4 5
25 26 27 26 24 21 22 24 26 27 28 27 26 24 21 20 16 14 13 13 13 11 11 11 11 11 11 10 10 10 10 10 10 10 10 9 8 7 6 5 5 4 4 4 4 4 3 4 4
24 25 26 25 23 24 25 27 28 29 30 29 28 26 24 21 19 16 14 14 13 12 12 12 12 12 12 11 11 11 11 11 11 10 10 9 9 8 7 6 5 4 4 4 4 3 3 4 4
24 25 25 24 24 26 28 30 32 32 32 31 30 28 26 22 19 18 17 15 14 14 13 13 13 13 12 12 12 12 12 12 11 11 11 10 9 8 7 6 6 5 5 5 5 4 4 4 4
24 25 25 24 24 26 29 33 35 35 34 34 32 30 28 25 22 19 18 17 16 15 14 13 13 13 13 13 12 13 13 13 12 12 11 11 10 9 8 7 7 7 6 6 6 5 5 5 5
25 26 25 24 24 26 31 36 37 38 37 36 35 32 30 26 23 21 19 18 17 16 14 14 13 13 13 13 13 13 14 13 13 13 12 12 11 10 9 9 8 8 7 7 6 6 6 6 6
27 28 26 25 27 28 32 37 39 40 40 39 37 34 32 28 25 22 19 18 17 16 14 14 13 13 13 13 13 14 14 14 13 13 13 13 12 12 11 10 10 9 9 8 8 7 7 7 7
29 29 28 29 29 29 33 37 39 41 42 40 38 36 31 28 25 23 21 18 17 17 15 13 13 13 13 13 13 14 14 14 14 14 14 14 13 13 12 11 11 11 10 10 10 9 9 8 8
30 30 30 30 31 31 33 36 40 42 42 41 39 36 32 27 24 22 20 18 16 15 16 15 14 14 13 13 13 14 15 15 15 15 15 15 15 14 14 13 12 12 12 11 11 11 10 10 10
31 30 30 30 32 32 32 35 39 41 41 41 41 38 34 29 24 21 17 16 15 16 16 17 15 15 14 14 14 14 15 15 16 16 16 16 16 15 15 14 14 14 13 13 13 12 12 11 11
30 28 28 28 29 31 31 33 37 39 41 42 41 38 33 27 22 19 17 15 14 15 17 17 16 15 15 14 14 15 15 16 16 16 16 17 17 17 16 16 15 15 15 15 14 14 13 12 12
28 27 25 25 26 28 29 31 34 36 39 40 39 36 32 26 21 18 15 14 15 17 18 18 16 16 15 15 15 16 16 16 17 17 17 18 18 18 18 17 17 17 17 16 16 16 15 14 14
26 25 23 23 24 25 28 29 30 34 37 38 37 35 31 26 22 18 15 15 15 16 18 18 16 16 16 16 16 16 17 17 17 19 19 19 19 19 19 19 19 19 19 18 18 17 17 17 17
24 23 22 22 23 25 27 27 28 32 35 36 36 34 31 27 24 20 18 17 17 17 18 18 18 18 18 18 18 18 18 18 19 20 21 21 21 21 21 20 20 20 20 19 19 19 19 19 20
23 22 21 21 23 25 27 26 26 29 33 34 35 34 32 28 25 22 20 18 18 18 20 20 20 21 20 20 19 19 19 20 21 22 22 23 23 23 22 22 21 21 21 20 20 20 21 21 22
21 20 19 19 22 24 25 25 25 27 31 33 33 33 33 32 28 26 23 21 21 21 22 21 21 21 22 21 21 22 21 22 23 23 24 25 25 24 24 23 23 22 23 23 23 23 23 24 24
21 19 18 18 20 22 23 23 23 24 28 31 32 33 33 33 31 29 26 25 24 24 24 23 23 24 22 22 23 23 25 26 26 25 25 25 25 25 25 26 26 25 25 25 25 24 25 26 26
19 19 18 18 20 22 21 21 21 22 25 27 30 32 32 33 32 32 31 29 27 25 25 25 26 26 24 23 23 25 26 28 28 27 27 27 27 28 29 29 28 28 28 27 27 26 26 27 28
18 18 18 18 20 21 20 20 20 20 22 23 26 29 31 32 33 33 32 31 29 28 27 26 27 28 26 26 27 28 29 29 29 29 29 28 29 30 31 30 29 29 29 28 28 27 27 28 29
17 17 18 18 19 20 20 19 17 18 19 21 23 25 28 30 32 33 32 31 30 30 29 28 28 29 28 29 30 31 31 30 31 32 32 31 30 30 30 30 30 29 29 30 30 29 28 28 27
16 17 18 18 19 20 19 18 16 17 18 19 21 23 25 26 29 30 30 29 29 29 29 28 28 28 29 30 31 31 30 30 32 31 32 32 32 31 31 30 31 30 29 29 29 27 26 26 26
17 17 18 18 18 18 17 17 16 16 17 18 19 21 22 23 25 26 27 28 28 28 29 28 28 28 29 29 30 30 30 30 31 32 33 32 33 32 32 32 32 31 30 29 27 27 26 26 26
17 17 17 17 17 17 17 18 17 16 15 17 18 19 20 21 23 25 26 27 26 26 28 28 28 28 29 29 27 27 26 27 28 28 30 31 31 31 31 32 31 29 28 26 26 25 26 27 28
15 16 16 16 15 15 16 17 17 17 16 17 18 19 20 21 22 24 25 26 27 27 27 28 28 28 28 28 27 25 24 24 25 25 25 26 26 27 28 27 27 26 25 25 25 27 28 30 31
13 14 14 15 15 16 16 16 17 16 17 17 18 19 20 21 21 23 24 25 26 26 27 26 27 27 27 26 24 24 23 23 23 23 24 24 24 24 25 25 25 25 25 26 27 30 32 33 34
12 12 12 13 14 15 16 15 15 16 16 17 18 19 19 20 21 22 24 25 26 25 25 25 26 26 25 25 25 25 24 23 24 23 23 23 23 23 24 25 26 26 28 30 31 33 34 36 37
11 12 12 12 13 14 14 14 14 15 16 16 17 18 18 18 19 22 23 24 25 25 25 24 25 25 25 25 25 25 25 24 24 24 24 24 25 24 25 27 28 29 31 32 33 35 37 38 40
9 12 13 12 11 12 13 13 14 15 14 14 14 15 16 17 18 20 21 22 23 24 24 25 25 25 25 25 25 25 25 25 25 25 25 25 25 26 27 28 30 31 33 34 36 38 39 40 41

GEFSSGP_500_meanwind_072.txt.gz
Wind_Speed
21 20 19 18 17 15 14 17 18 19 20 19 18 17 16 15 15 16 14 14 14 16 17 17 17 16 15 13 12 11 11 11 10 9 9 8 7 6 6 6 5 4 4 4 4 4 4 4 4
22 21 21 20 19 17 17 20 20 21 20 19 19 18 17 16 16 16 15 15 15 16 17 18 17 17 16 14 14 13 13 12 12 11 10 9 8 8 7 7 6 6 5 5 5 4 4 4 3
22 22 22 21 19 18 20 23 23 23 22 21 19 18 17 17 17 16 15 14 15 16 18 19 18 17 16 15 15 15 14 14 13 12 11 10 9 9 9 8 7 7 6 6 6 5 5 4 3
22 22 22 21 20 20 23 26 26 25 24 23 21 20 18 18 17 17 16 15 15 17 19 21 20 19 18 17 16 16 16 15 14 13 12 11 11 10 10 9 9 8 8 7 7 6 5 5 4
22 22 22 21 20 21 24 27 28 28 27 25 23 21 20 19 18 17 17 16 16 17 19 20 20 19 19 18 18 17 17 16 15 15 14 13 12 12 11 11 10 10 9 8 8 7 6 6 5
21 22 22 21 21 23 25 27 29 29 29 28 26 24 23 21 19 18 17 17 17 18 18 19 20 20 20 20 19 18 18 17 16 16 15 14 14 13 13 12 12 11 10 10 9 8 7 6 6
21 21 21 21 22 24 26 28 29 30 30 30 28 26 25 23 20 18 17 18 17 18 18 19 21 21 21 21 21 20 19 18 18 17 16 16 15 14 14 13 13 12 12 11 10 10 9 8 7
20 21 21 21 23 25 27 28 29 30 30 31 30 28 28 25 22 19 18 18 18 18 19 20 21 22 22 23 22 21 20 20 19 18 17 17 16 16 15 14 14 13 13 12 11 11 10 9 9
21 21 22 23 25 26 28 29 30 30 31 31 31 30 29 26 23 21 19 19 19 19 19 19 22 23 23 23 24 23 22 21 20 19 18 18 17 17 16 16 15 14 14 14 13 12 11 11 10
22 23 25 26 26 27 28 29 31 31 31 31 31 31 30 28 24 22 20 20 20 20 20 21 22 23 23 24 25 24 22 21 20 20 19 19 19 18 17 17 16 16 15 15 14 13 13 12 12
24 25 27 27 28 28 29 30 31 31 31 32 32 32 31 28 26 23 21 21 21 22 21 21 22 23 24 25 25 25 23 22 22 21 21 20 20 19 19 18 18 17 17 16 15 15 14 14 13
25 26 28 28 29 29 30 31 32 32 31 33 33 32 30 29 26 24 22 21 21 22 23 23 24 25 25 25 25 25 24 23 23 22 21 21 21 20 20 19 19 18 18 18 17 16 16 15 15
25 27 28 29 30 30 30 30 31 31 32 32 32 31 30 29 27 25 24 22 22 23 25 26 26 26 26 25 26 25 24 24 23 23 22 22 22 21 21 21 20 20 20 19 19 18 18 17 17
26 27 27 28 29 29 29 29 29 30 31 31 31 30 29 29 27 26 25 24 23 24 26 26 28 27 28 27 27 26 25 24 23 22 23 23 23 22 22 22 22 22 21 21 20 20 20 20 19
25 25 26 27 27 28 27 27 28 28 29 29 30 29 28 28 28 27 26 26 26 25 25 25 26 28 29 28 28 27 26 26 24 24 24 25 24 24 24 24 24 24 23 22 22 21 21 21 21
23 23 23 26 26 26 24 23 26 26 26 27 29 28 28 28 28 27 27 27 27 25 25 26 26 27 29 29 28 28 27 26 25 25 25 26 25 26 26 26 26 25 25 24 24 24 23 23 23
21 20 20 23 25 24 23 22 24 24 24 26 28 28 28 28 28 29 29 28 28 26 26 27 27 28 28 29 29 28 27 26 26 26 27 27 26 27 27 27 27 27 26 26 26 25 25 25 25
18 18 19 20 23 22 22 22 21 21 23 24 26 27 28 29 30 30 30 30 30 29 28 28 27 27 26 26 27 27 27 26 27 27 28 28 27 28 29 28 28 28 27 26 26 27 27 27 28
18 18 17 19 21 21 21 20 20 19 21 23 24 26 27 29 30 31 32 33 33 31 28 27 28 25 24 24 25 25 27 27 27 27 28 29 29 29 30 29 30 30 29 29 29 29 29 30 30
17 16 16 18 19 19 19 19 18 18 19 20 23 25 26 29 31 33 34 36 35 32 29 27 26 24 23 23 23 24 24 25 27 28 29 30 31 32 32 32 32 31 31 31 31 31 31 32 31
16 16 16 17 17 17 17 17 17 17 18 19 21 23 25 28 31 34 35 35 35 34 31 29 27 25 24 24 23 24 24 25 26 26 28 31 33 33 34 33 33 33 33 32 32 33 33 32 33
15 16 16 16 15 14 16 14 17 17 17 18 20 21 24 26 30 33 35 35 35 34 33 30 28 27 26 25 25 26 25 25 26 28 28 29 31 32 34 34 33 33 33 33 34 34 33 32 33
15 16 16 15 15 15 15 15 16 16 16 17 19 20 22 24 26 31 34 35 35 34 33 31 31 30 28 28 28 28 27 27 27 28 28 29 30 32 33 34 35 35 35 36 37 36 35 34 34
15 15 14 14 13 15 14 15 15 16 15 16 17 19 21 22 24 27 31 33 34 34 33 33 32 32 31 30 29 28 29 28 27 27 26 27 30 32 34 34 35 36 36 36 37 36 36 35 34
13 12 11 12 12 13 14 14 15 14 14 15 16 17 19 21 23 25 28 32 34 34 34 34 33 33 32 31 30 29 29 27 27 27 25 27 29 31 33 32 33 34 34 35 35 34 34 33 31
11 9 10 11 12 12 14 15 15 13 13 14 15 16 17 18 21 23 25 27 31 32 32 32 32 33 32 31 30 29 28 27 26 25 25 24 24 26 27 29 30 30 30 30 31 32 31 30 30
9 9 10 11 11 13 14 15 14 12 13 13 14 16 16 18 19 21 23 25 27 29 31 31 31 31 30 29 29 28 27 26 25 24 23 23 22 24 25 25 27 28 28 28 27 28 29 30 31
7 8 9 9 10 11 13 13 12 11 11 10 11 13 15 17 20 20 22 24 25 27 29 30 30 30 29 29 28 27 26 25 23 22 20 21 21 22 24 25 26 28 29 27 27 28 29 30 32
7 8 8 8 10 11 12 12 11 10 10 10 11 12 14 17 19 20 22 24 25 27 28 29 30 30 29 28 27 27 25 25 23 22 21 20 20 21 23 24 24 24 25 26 27 28 29 30 32
7 8 9 10 11 11 12 13 12 11 10 11 11 12 12 14 16 18 21 23 24 26 28 28 28 29 28 28 28 27 26 25 24 23 23 22 22 22 23 24 23 24 25 26 28 29 31 32 33

GEFSSGP_500_meanwind_078.txt.gz
Wind_Speed
19 18 17 18 17 15 8 4 7 11 17 23 21 18 17 18 19 19 16 15 14 15 16 17 17 18 18 17 17 15 15 14 14 14 14 14 13 12 12 11 10 9 8 7 6 5 5 4 3
19 19 19 19 18 15 6 5 10 16 23 25 21 17 16 19 21 20 18 16 16 15 17 18 19 20 20 19 19 18 16 15 15 15 15 15 14 13 13 12 11 10 9 8 7 6 6 5 4
19 19 20 19 18 14 9 8 14 20 25 25 22 20 18 20 19 18 17 17 17 16 18 19 19 20 21 21 20 19 19 17 16 16 16 16 15 14 13 13 12 10 9 8 8 7 6 5 4
19 19 20 19 17 13 12 13 17 22 24 23 21 21 21 22 19 17 17 17 17 17 18 20 20 20 20 21 21 20 20 19 18 17 17 16 16 15 14 14 12 11 10 9 8 8 7 6 5
20 20 19 18 16 14 15 18 23 26 24 23 22 22 24 23 21 17 17 18 18 18 18 19 20 21 20 21 21 20 20 20 19 19 18 18 17 16 15 15 13 12 11 10 9 9 8 7 7
19 19 18 16 12 12 15 20 24 26 24 22 22 22 25 25 22 19 18 18 18 17 18 18 19 20 19 20 21 20 20 20 20 19 19 19 18 17 16 16 14 13 12 11 11 10 9 8 8
18 18 16 14 12 13 17 22 24 24 22 20 20 22 25 28 23 20 19 19 19 18 17 18 18 19 20 21 22 21 21 21 21 20 20 19 19 19 18 17 16 14 13 13 12 11 10 10 9
17 17 15 13 13 15 19 24 26 25 23 21 22 23 27 28 25 22 20 20 20 20 19 20 19 19 20 22 23 23 22 22 22 21 21 20 20 19 19 18 17 16 15 14 13 12 11 11 10
16 16 14 11 12 16 20 24 23 23 23 22 23 24 28 30 26 25 22 22 22 21 20 20 20 21 21 23 24 24 24 22 22 22 21 21 21 20 20 19 18 17 16 16 15 14 13 12 12
15 15 13 14 19 23 23 24 23 24 23 22 22 25 29 29 28 25 24 24 24 22 21 21 21 22 23 24 24 25 25 23 23 23 23 22 22 22 21 20 20 19 18 17 16 15 14 14 13
16 16 17 19 23 25 25 25 26 26 25 22 22 25 28 29 28 26 26 27 26 25 23 21 22 23 25 24 24 25 25 25 24 25 24 24 23 22 22 22 21 20 19 18 18 17 16 16 15
17 18 19 21 24 25 25 26 26 26 26 24 25 27 29 30 29 28 28 28 27 27 25 24 23 24 24 25 25 25 25 25 25 25 26 25 24 23 23 23 22 21 21 20 19 19 18 17 17
17 19 20 22 24 25 26 26 27 27 26 27 28 29 30 31 31 29 28 29 29 28 28 26 25 25 25 25 25 26 26 26 26 26 26 26 25 25 24 23 23 23 22 21 20 20 20 19 18
18 19 20 22 24 25 25 25 25 24 24 26 28 29 30 30 31 31 31 31 31 30 29 27 27 26 27 27 26 27 28 28 27 27 26 27 26 25 25 25 24 23 23 22 22 22 21 21 20
16 18 19 20 22 22 23 22 21 21 23 26 26 28 30 31 31 33 33 33 32 31 31 29 29 28 27 27 28 29 29 29 29 28 28 27 27 26 26 26 25 24 23 23 23 23 22 22 22
14 14 14 15 19 21 20 18 17 20 24 25 26 28 29 29 30 33 33 34 31 31 30 30 29 28 28 28 29 29 30 29 29 28 28 27 27 26 26 27 26 25 24 24 24 23 23 23 23
10 10 10 12 19 21 20 17 16 23 26 26 27 27 28 29 31 33 33 34 33 33 31 31 31 30 30 30 29 29 30 30 30 30 29 29 28 28 27 27 26 26 26 25 25 24 24 24 25
8 11 12 14 19 22 21 19 20 25 27 28 28 27 28 29 30 32 33 34 34 34 34 34 32 31 31 31 30 29 29 29 30 31 30 29 29 30 29 27 26 27 27 26 26 26 25 26 26
15 16 17 17 19 23 23 21 23 24 27 29 29 28 27 29 30 30 32 35 35 35 35 35 33 32 31 31 30 29 27 28 30 30 29 28 28 29 29 28 29 28 28 28 28 27 27 27 28
14 14 14 16 19 22 21 22 23 24 27 26 27 26 28 28 29 29 32 33 34 34 35 35 34 33 32 31 30 27 28 28 26 26 27 27 27 28 28 28 28 29 30 29 29 30 30 30 31
13 14 15 17 17 20 22 23 22 23 24 23 25 25 25 28 29 30 32 32 32 34 34 35 34 34 33 32 31 28 25 23 23 23 24 24 26 26 28 29 29 29 30 31 31 32 32 32 32
14 15 17 18 19 19 22 25 24 25 24 22 23 24 24 26 28 30 31 31 31 33 34 34 34 34 32 31 29 28 25 24 23 23 22 24 25 24 25 26 28 28 30 31 32 32 32 32 33
16 15 18 19 20 20 20 25 23 25 24 21 20 20 20 23 26 27 29 31 33 33 34 34 34 34 31 30 29 28 27 24 23 21 21 22 23 24 23 24 26 29 31 32 32 32 33 33 34
15 15 15 15 18 20 19 23 25 26 22 19 18 17 19 22 24 26 28 29 31 32 33 33 35 35 31 30 30 29 28 25 23 22 21 22 23 23 23 24 25 28 31 32 33 34 34 35 36
15 15 15 17 18 19 19 21 21 21 19 20 17 16 18 20 22 24 27 29 30 31 31 32 34 34 32 30 30 29 28 26 24 22 22 22 22 22 23 24 26 28 29 31 33 34 35 36 35
14 14 16 18 19 20 17 19 18 17 16 18 18 18 19 19 21 23 24 26 28 29 29 31 32 32 31 30 28 28 28 26 24 23 21 21 22 23 23 25 26 27 29 30 32 34 35 35 34
11 11 14 17 17 20 19 17 18 16 16 16 17 18 19 19 20 21 22 24 25 26 26 28 29 29 29 29 28 28 27 25 23 23 22 22 23 24 25 25 26 27 28 29 31 33 34 34 34
11 11 12 14 17 19 20 19 16 16 15 15 16 17 18 19 20 20 21 22 23 24 23 25 26 27 27 27 27 27 26 24 24 24 24 23 24 24 25 26 26 26 27 27 28 30 32 33 33
11 11 12 13 16 19 22 22 20 17 13 13 14 16 16 17 19 20 21 21 21 21 22 23 24 25 25 26 26 26 25 24 24 25 25 24 24 24 25 25 25 25 26 27 28 29 30 30 31
10 11 12 14 16 18 21 22 20 18 13 14 15 16 15 16 18 18 19 20 21 21 22 23 24 25 25 25 25 25 25 25 25 25 25 24 24 24 24 24 24 25 26 26 27 27 28 28 28

GEFSSGP_500_meanwind_084.txt.gz
Wind_Speed
21 20 20 19 16 13 13 15 16 14 13 13 15 17 18 18 19 17 15 14 12 10 10 9 9 9 10 11 12 12 13 13 12 12 11 11 11 11 11 12 12 11 11 10 10 9 8 7 6
21 21 20 19 16 13 15 17 17 15 13 14 18 21 21 20 18 16 16 14 13 11 11 11 10 11 12 13 13 14 14 15 14 13 13 12 12 12 12 12 13 12 12 11 10 9 9 8 7
21 21 20 19 15 15 17 18 18 15 14 15 19 23 24 21 18 17 15 13 12 11 12 12 11 11 12 14 15 16 16 16 16 16 15 14 13 13 13 13 13 13 12 12 11 10 10 9 7
21 21 20 18 15 17 19 19 18 15 15 18 21 24 25 22 19 16 14 13 13 12 13 13 12 12 13 14 16 17 18 18 18 18 17 16 15 15 14 14 14 13 13 12 12 11 10 9 8
21 20 19 17 16 19 21 20 19 16 17 20 23 26 25 22 19 16 15 15 13 13 13 13 13 13 13 14 16 17 18 19 19 19 19 18 17 16 15 14 14 14 14 13 12 11 11 10 9
21 20 18 18 19 22 24 22 21 18 20 23 25 27 27 23 20 17 15 14 14 14 14 14 14 15 16 15 15 18 19 19 20 20 19 19 18 17 16 15 15 15 14 13 13 12 12 11 10
21 19 18 18 20 24 25 23 21 21 22 25 28 29 28 25 21 17 15 15 15 15 16 16 16 16 17 16 17 18 18 19 20 20 20 19 18 18 17 16 16 15 15 14 13 13 12 12 11
20 19 18 18 22 25 26 24 22 22 24 27 29 29 28 25 23 20 18 17 17 17 17 17 17 17 18 17 17 17 18 19 20 20 20 20 20 19 18 17 16 16 15 15 14 14 13 13 12
18 16 17 20 25 26 25 24 24 25 26 27 28 27 27 26 25 23 21 19 18 19 20 19 19 19 19 19 19 19 19 20 20 21 21 21 21 20 18 18 17 16 16 15 15 15 14 14 13
16 15 19 23 25 25 24 23 22 23 23 24 25 25 26 26 26 25 24 22 20 20 22 21 21 20 20 20 21 21 21 21 21 21 22 22 22 21 20 19 19 18 17 16 16 15 15 15 14
15 17 20 22 23 23 21 21 21 22 23 23 24 25 26 26 26 26 25 24 23 22 24 24 23 23 22 22 22 22 22 23 23 23 23 23 23 23 22 22 21 19 18 18 17 17 16 16 15
17 18 20 20 20 20 19 19 21 22 24 25 26 26 27 27 27 27 27 27 26 26 26 27 26 24 24 24 24 24 24 24 25 25 24 23 24 24 24 23 22 21 20 18 18 18 18 17 17
18 20 21 21 21 20 19 19 21 23 25 26 27 27 28 28 28 28 29 29 27 25 25 27 27 27 27 27 26 26 26 26 26 26 25 25 25 25 25 24 23 22 21 19 19 19 19 19 18
17 18 19 19 19 18 19 18 20 21 24 25 27 27 28 29 29 30 30 31 29 28 28 29 30 28 28 28 29 28 27 28 28 27 27 26 26 26 26 26 25 24 23 21 21 20 20 20 20
15 14 14 14 14 14 16 16 17 19 21 23 25 26 27 29 30 30 30 31 31 31 31 32 31 31 29 29 30 31 30 29 29 28 29 28 27 27 27 27 26 26 25 23 22 22 22 22 21
11 11 10 10 11 12 14 13 15 16 19 20 22 24 26 27 29 30 31 32 32 32 32 32 32 31 30 30 31 32 32 31 30 30 30 29 29 29 28 28 28 28 27 25 24 23 23 23 22
10 9 10 9 9 11 14 14 14 16 18 20 21 24 25 27 28 30 31 32 32 32 32 33 32 31 30 31 32 32 31 31 31 30 30 32 32 31 31 30 30 29 29 28 26 25 24 24 23
10 11 11 9 9 12 14 15 16 18 20 22 23 25 27 28 29 30 31 32 32 33 32 32 32 32 31 31 31 32 30 30 30 29 30 32 33 34 34 33 31 30 29 28 28 26 25 24 24
11 11 11 9 11 14 15 17 19 21 24 25 26 27 27 30 30 30 30 31 32 33 32 31 31 31 30 30 31 32 30 29 27 28 29 30 31 32 31 32 32 32 30 29 28 28 27 27 26
11 11 10 10 12 15 17 19 21 23 26 26 26 27 28 28 29 31 31 31 32 31 31 32 30 29 30 30 30 30 30 29 29 29 29 28 27 28 30 30 31 31 31 30 29 29 29 29 28
10 11 12 14 15 17 21 23 24 25 26 26 27 27 28 27 26 28 30 31 30 30 30 30 29 28 28 29 29 29 29 29 29 27 27 27 27 27 30 30 30 30 30 30 29 29 28 28 28
10 11 13 15 17 18 21 24 24 24 26 27 26 26 25 25 25 26 28 28 29 29 28 27 27 26 27 29 30 30 29 29 27 26 26 26 24 26 26 27 27 29 28 29 29 29 28 29 29
10 11 13 15 16 18 20 23 23 24 24 24 24 23 22 22 23 24 25 26 26 26 25 26 26 26 26 28 28 28 29 28 27 26 25 23 23 24 24 23 24 25 25 26 27 28 28 28 28
10 12 13 14 15 16 17 20 21 21 22 23 21 21 22 23 22 22 23 23 24 24 25 25 25 26 26 27 27 28 28 27 26 25 24 24 23 22 21 22 23 23 23 24 25 26 27 28 28
12 13 13 12 13 14 15 18 18 18 19 19 20 20 21 21 20 20 21 21 21 21 22 23 24 25 25 26 26 27 28 26 25 25 24 23 22 21 20 20 20 21 21 22 23 25 26 27 28
11 12 12 13 14 14 15 18 17 17 18 18 17 17 18 17 19 20 20 20 20 20 20 21 22 23 24 24 25 26 26 25 24 24 23 22 21 21 20 19 20 20 20 21 21 23 25 26 28
11 11 11 14 15 15 16 17 18 17 17 17 17 16 15 16 17 17 18 19 19 19 19 19 21 22 22 21 22 23 23 23 22 22 22 22 22 21 19 20 19 19 19 20 21 22 23 24 25
12 11 12 13 15 16 16 17 18 17 17 16 15 13 13 14 14 15 16 17 17 17 17 18 18 19 20 20 20 20 20 20 21 21 21 22 21 19 19 20 20 19 20 20 20 21 22 24 25
13 13 13 14 15 16 17 17 17 17 17 15 13 11 13 13 14 15 15 15 15 15 15 16 17 17 17 18 18 18 18 19 19 20 20 19 19 18 19 20 20 20 20 20 20 21 22 23 24
13 14 15 15 15 16 18 18 18 16 16 15 14 14 13 14 14 13 14 14 13 14 15 16 16 16 16 17 17 18 18 19 19 19 19 18 18 18 18 19 20 20 19 19 20 21 22 22 23

GEFSSGP_500_meanwind_090.txt.gz
Wind_Speed
25 24 23 21 20 17 16 18 20 20 19 18 16 13 11 9 8 8 7 6 5 5 5 5 6 7 7 8 7 7 6 6 5 5 4 4 4 4 4 5 6 7 8 9 9 9 9 9 7
26 25 24 22 20 17 18 21 23 23 22 20 17 14 11 10 9 8 8 7 6 5 6 7 8 8 8 9 9 9 8 8 7 7 6 5 5 5 5 5 6 7 8 9 9 9 9 8 7
26 25 24 22 19 18 21 24 26 25 23 21 19 16 14 12 10 10 9 8 7 7 7 8 9 9 9 9 10 10 10 9 9 9 8 8 7 7 7 7 7 7 7 8 8 9 8 8 7
26 25 24 22 19 20 24 27 28 27 24 22 20 18 16 14 12 11 10 9 9 9 9 9 9 9 9 10 10 11 11 11 11 11 11 10 10 10 9 8 8 7 8 8 8 8 8 8 7
25 24 22 20 21 24 27 29 28 28 26 24 22 19 16 15 14 13 12 11 10 10 10 11 10 10 10 10 11 11 12 12 13 13 12 12 12 12 11 10 9 9 9 9 8 8 8 8 7
24 22 21 20 24 27 29 30 29 28 27 25 23 20 18 17 16 15 14 13 12 11 11 11 11 11 10 10 11 12 13 13 13 14 14 13 13 13 13 12 11 10 10 10 9 9 9 8 7
23 21 20 22 26 29 31 31 29 28 28 26 23 21 20 19 18 18 16 15 14 13 12 12 13 13 12 12 12 13 14 14 15 15 14 15 14 14 14 13 12 12 11 11 10 10 9 9 8
21 20 20 23 27 30 32 32 31 29 29 27 25 22 21 21 20 19 17 16 15 15 14 14 14 14 14 14 13 14 14 15 16 16 16 16 16 16 15 14 14 13 13 13 12 11 10 10 9
19 19 20 24 28 31 33 34 32 32 30 28 27 25 24 22 21 20 19 18 17 17 17 16 16 16 16 16 15 16 16 17 17 17 17 17 17 17 17 16 16 15 15 14 13 12 12 11 11
18 18 22 26 29 32 34 35 34 33 32 30 28 27 25 23 22 22 21 20 19 19 19 18 18 18 18 18 17 17 18 19 18 18 18 18 18 18 18 18 17 17 17 16 15 14 14 13 12
18 20 23 27 30 32 34 35 35 34 33 31 30 29 27 25 25 23 22 21 21 21 19 20 19 19 20 20 20 20 20 20 21 21 20 20 20 19 20 20 20 19 18 18 17 16 15 15 14
18 21 23 26 29 31 33 34 33 33 33 32 32 30 28 27 26 25 24 23 23 23 22 21 22 22 22 22 22 22 23 22 23 24 24 23 22 22 21 21 21 21 20 20 19 19 18 17 16
18 20 22 24 26 29 30 31 32 31 31 31 30 29 28 27 27 26 26 25 24 25 24 24 24 24 24 24 24 23 24 26 25 26 26 25 24 23 23 22 22 22 22 21 21 21 19 19 18
16 18 20 22 24 26 28 28 28 29 29 29 28 27 27 27 26 26 26 26 26 27 27 26 26 26 27 26 26 26 26 28 28 28 28 28 27 25 24 25 24 23 23 23 23 22 21 21 20
15 17 19 21 23 24 24 25 26 27 27 26 26 26 26 26 26 26 26 26 26 26 27 27 27 27 27 27 27 27 29 29 30 29 29 29 28 28 26 26 25 25 25 25 25 24 22 21 21
14 16 19 21 23 24 23 23 24 24 24 23 23 23 23 23 23 24 25 25 26 27 27 28 28 28 28 28 28 29 29 30 29 30 30 30 30 29 28 28 27 27 27 27 26 25 24 23 23
14 16 18 20 21 22 22 21 21 21 20 20 21 21 21 21 22 23 25 26 27 27 28 28 28 28 29 29 30 29 29 30 30 31 32 31 30 31 31 30 30 30 30 29 28 27 26 26 25
15 16 17 18 18 19 18 18 18 19 19 20 20 21 21 21 22 24 25 26 27 28 29 29 29 29 30 30 30 30 31 32 32 31 31 30 30 31 33 33 32 33 32 31 31 30 28 28 27
15 15 16 16 17 17 17 17 18 18 19 20 20 20 21 22 23 24 25 26 27 28 29 29 30 30 30 31 31 32 32 33 33 32 32 32 32 32 32 33 33 34 34 32 32 32 31 30 30
15 15 15 16 16 17 17 18 18 19 20 21 22 22 23 24 25 25 24 25 25 25 26 27 28 29 30 29 30 31 31 31 31 32 32 32 32 31 32 32 31 33 33 33 33 32 32 31 31
15 14 15 15 16 17 18 18 18 19 21 21 22 22 23 23 25 25 25 25 25 25 25 26 27 27 28 28 28 29 30 31 29 31 32 31 32 31 31 31 30 31 32 33 35 35 35 34 33
14 14 14 15 16 16 17 17 17 18 19 20 20 21 22 23 24 24 24 24 24 24 24 24 24 25 26 26 26 26 27 28 30 29 29 28 27 27 29 30 31 31 30 31 33 34 34 34 33
13 13 13 13 13 14 15 17 16 18 19 19 20 21 23 22 22 23 23 23 22 22 21 21 21 22 23 24 25 25 26 26 27 28 28 27 26 26 28 29 29 30 30 30 30 32 32 33 33
13 13 13 12 12 13 14 15 14 16 17 18 20 21 21 21 21 21 21 21 21 20 20 20 20 21 22 22 22 23 24 25 26 26 27 27 26 26 27 28 28 28 28 29 29 30 31 32 33
13 12 12 12 12 12 13 14 14 15 16 17 19 19 19 18 19 19 19 19 19 18 19 20 20 20 20 20 20 20 21 22 24 25 26 26 26 26 26 27 27 25 26 26 27 29 30 30 31
13 12 12 12 12 12 12 13 13 14 15 16 17 17 16 17 17 17 17 17 17 17 18 19 19 20 20 19 19 19 20 20 22 23 24 24 24 24 24 24 24 24 24 25 26 27 28 29 30
12 11 12 13 12 12 11 11 12 14 15 16 16 16 15 16 16 17 17 17 16 17 17 18 18 19 20 20 19 19 19 20 21 22 23 23 23 23 23 24 24 24 24 24 24 25 26 28 29
11 11 11 12 13 12 11 12 13 13 14 16 15 15 16 16 16 16 16 16 16 16 17 17 17 18 19 19 19 19 19 20 20 21 22 22 22 23 23 23 23 22 23 23 24 25 26 27 28
12 12 12 13 14 15 14 12 14 15 16 16 16 15 16 16 16 15 15 16 16 16 16 17 17 17 18 19 19 20 20 19 20 21 21 21 22 23 23 23 22 22 22 22 23 24 25 25 26
13 13 14 14 15 15 16 14 15 17 18 18 17 17 18 18 17 17 17 18 17 17 17 17 18 18 18 19 20 20 20 20 20 20 20 21 21 21 22 22 22 22 22 21 22 23 23 24 24

GEFSSGP_500_meanwind_096.txt.gz
Wind_Speed
24 22 21 20 19 19 19 21 22 20 18 16 14 13 12 12 11 10 8 8 8 9 9 9 10 9 9 9 9 9 9 9 9 9 9 9 8 7 6 5 4 3 2 1 1 1 2 1 1
24 23 22 21 20 18 20 24 24 23 19 16 15 15 13 13 12 11 9 9 9 9 10 9 10 10 10 10 10 10 10 10 10 9 9 9 9 8 6 6 4 3 2 1 1 0 1 1 1
24 23 22 21 20 19 23 26 26 23 20 18 17 16 15 14 13 11 9 9 10 10 10 10 10 11 11 11 11 12 12 12 12 11 10 10 9 9 8 7 6 5 4 3 3 2 2 2 2
22 22 22 21 21 24 27 27 26 24 21 20 18 17 16 14 13 11 10 9 10 10 11 11 11 11 11 12 12 13 13 13 13 13 13 12 11 11 10 9 8 7 6 5 5 4 4 4 3
21 21 20 21 23 26 27 27 26 25 23 21 20 19 18 15 14 13 11 9 10 11 12 11 11 11 12 13 13 14 15 15 15 15 15 14 14 13 12 11 10 9 9 8 7 6 6 5 5
19 19 19 20 23 26 27 27 27 26 25 22 20 20 20 17 15 13 12 10 11 12 12 13 13 13 13 14 14 15 15 16 16 16 16 16 16 15 14 14 13 12 11 10 9 9 8 7 7
18 18 19 21 23 26 27 27 27 27 26 24 22 20 20 18 16 15 12 12 12 12 13 13 13 14 14 14 15 15 16 17 17 17 17 17 17 17 16 16 15 14 14 13 12 11 10 9 9
18 18 19 21 23 26 27 27 27 27 27 25 23 22 21 19 17 16 15 14 13 14 14 14 15 15 15 16 16 16 17 17 18 18 19 18 18 18 18 17 17 16 16 15 14 13 12 11 11
17 17 19 21 24 26 26 27 27 27 26 26 25 24 21 18 17 17 17 16 16 16 15 16 16 17 17 17 17 17 18 19 19 20 20 20 19 19 19 18 18 17 17 16 16 15 14 14 12
17 18 21 23 24 25 26 27 27 27 27 26 26 25 23 21 19 19 19 18 17 17 16 17 17 17 18 18 18 19 19 20 21 21 21 21 21 21 20 20 20 19 18 18 17 16 16 15 14
17 20 21 22 23 23 25 26 26 27 28 27 26 26 24 23 22 21 20 19 19 18 18 18 18 19 19 20 20 20 20 21 22 22 22 22 23 23 22 22 22 21 20 19 19 18 17 17 16
17 19 21 21 22 22 24 25 26 27 28 27 27 26 25 25 24 23 23 22 21 20 19 20 20 19 20 21 22 22 22 23 23 24 24 23 24 24 23 23 23 22 21 21 20 19 19 19 18
17 18 19 20 21 22 23 25 26 27 27 27 27 27 27 27 26 26 25 24 23 22 22 21 22 22 22 22 23 23 23 24 24 24 25 25 25 25 24 24 24 24 23 22 22 21 21 20 20
16 17 18 19 20 21 23 24 25 26 26 26 26 26 27 27 27 26 26 26 25 24 24 24 24 25 25 25 25 25 26 26 25 25 26 26 27 27 27 27 26 25 24 23 23 22 22 22 21
15 16 17 19 19 20 21 23 24 24 24 25 25 26 27 27 27 26 26 26 26 25 25 25 25 26 26 27 27 27 27 27 27 27 28 28 29 29 29 29 28 27 26 25 24 24 24 24 24
13 14 15 17 18 19 18 21 21 22 23 24 25 26 27 26 26 26 26 26 25 26 26 26 26 26 27 28 28 28 28 28 29 29 30 30 30 30 30 30 30 30 29 27 26 26 25 26 25
12 13 14 16 16 17 17 20 19 20 21 22 23 24 25 25 25 25 25 25 25 26 26 26 27 28 28 29 29 29 29 29 30 30 31 31 31 31 31 31 32 32 32 30 28 27 27 27 27
12 13 13 14 15 15 16 18 18 19 20 21 22 22 23 23 24 24 25 26 26 26 27 27 27 28 29 30 31 31 31 31 31 32 31 31 32 32 31 31 34 33 32 32 31 30 29 29 30
12 12 12 13 12 13 14 15 16 17 18 19 20 21 21 22 23 24 25 26 26 27 27 28 28 28 29 30 31 32 32 33 32 32 32 31 32 33 32 32 34 34 32 33 32 32 32 31 30
10 9 10 11 12 12 13 14 15 16 17 18 18 19 21 22 23 23 24 25 26 26 27 28 29 28 29 30 31 33 33 34 34 33 33 32 32 32 32 32 33 34 33 33 33 33 33 33 33
10 9 10 11 11 11 12 13 15 16 17 18 19 20 20 21 22 23 24 25 25 26 27 27 28 27 28 29 30 31 31 32 32 33 33 32 32 32 33 32 33 35 35 34 34 34 33 34 34
9 10 9 9 8 11 10 10 15 15 16 18 18 19 20 20 21 21 22 23 24 25 26 26 26 27 28 28 29 30 30 31 32 32 32 32 31 31 32 32 33 34 35 35 35 34 35 34 34
9 8 8 8 8 9 10 8 13 13 14 16 17 17 18 19 20 20 21 22 22 23 24 24 25 26 27 27 27 28 29 30 31 31 31 31 31 31 32 32 33 34 35 35 34 34 34 33 33
7 6 6 7 7 8 9 8 10 11 12 13 14 15 16 18 19 19 19 20 20 21 22 23 24 24 25 25 26 27 27 28 29 30 30 30 31 31 32 32 32 33 33 33 32 33 33 33 32
7 6 5 6 7 8 10 8 9 11 11 13 14 15 15 17 17 18 19 19 19 19 20 21 22 22 23 23 24 25 25 25 26 27 27 28 29 31 31 32 32 33 32 32 31 32 33 33 32
7 7 7 7 7 9 11 9 10 10 11 13 14 14 15 16 17 17 16 17 17 18 19 20 21 21 22 22 22 23 24 24 23 24 25 26 27 28 29 31 31 32 32 31 30 30 31 31 32
8 8 9 8 8 9 10 11 11 11 12 13 14 14 15 16 16 15 15 16 17 17 18 19 20 20 20 21 21 22 22 23 22 22 23 24 25 27 28 29 30 31 31 32 31 30 30 31 31
9 9 9 7 8 8 9 11 11 12 13 14 14 15 16 16 16 16 16 16 17 18 18 19 19 19 18 19 20 20 21 22 22 22 23 24 24 25 26 27 28 29 30 31 30 29 28 29 29
11 10 9 9 10 9 9 11 13 14 14 15 15 16 17 17 17 17 17 17 17 18 19 19 19 19 19 20 20 21 21 21 22 22 23 24 24 25 25 26 26 27 28 28 28 28 28 28 28
12 11 11 11 12 11 11 13 14 15 16 16 17 18 18 18 18 18 18 18 18 18 19 20 20 21 21 21 21 21 21 22 22 22 22 22 23 24 25 25 25 26 27 27 27 27 27 28 27

GEFSSGP_500_meanwind_102.txt.gz
Wind_Speed
18 19 19 18 17 15 11 7 9 16 20 23 22 20 20 20 19 18 17 14 12 13 12 12 11 11 10 10 10 9 9 9 9 9 10 10 10 10 9 9 8 7 6 4 3 2 2 1 1
17 18 18 18 16 13 6 6 14 19 23 22 20 20 20 21 20 18 17 15 14 14 14 13 13 12 12 11 11 11 10 10 10 11 11 11 12 12 11 10 9 8 7 6 5 4 3 3 2
17 17 17 17 14 9 5 11 19 21 25 21 19 21 21 21 19 19 17 16 15 15 15 15 14 14 13 13 13 12 12 11 11 11 12 12 12 12 12 11 11 10 9 8 6 6 5 4 4
17 16 16 15 12 8 10 16 22 22 23 20 20 22 23 21 20 20 19 18 16 16 16 15 15 15 15 15 14 14 13 13 13 13 13 13 13 13 13 13 12 11 10 9 8 7 7 6 5
16 15 14 13 11 11 17 22 24 20 21 19 21 22 25 25 22 20 18 16 16 16 16 16 15 15 16 16 16 15 15 15 14 14 14 15 15 14 15 14 14 13 12 11 10 9 9 8 7
15 14 13 10 8 14 21 26 24 20 18 19 21 22 24 22 19 18 17 17 16 16 16 16 16 16 16 17 17 16 16 16 16 16 16 16 16 16 16 16 15 15 14 13 12 12 11 10 9
15 13 11 7 9 16 21 23 19 17 18 23 24 24 26 25 17 16 16 17 16 16 16 16 17 17 17 17 18 17 17 17 17 17 18 17 17 18 18 18 17 17 16 15 15 14 13 12 11
15 14 12 10 13 17 24 24 20 17 22 25 25 26 26 20 15 15 17 16 17 17 16 16 17 17 18 18 18 18 18 18 18 19 19 19 19 19 19 19 19 18 18 17 16 15 14 14 13
14 14 11 9 13 18 23 21 19 22 23 25 26 25 22 19 16 15 16 16 17 16 16 16 17 17 18 19 19 19 19 19 19 19 20 20 20 20 20 20 20 20 19 19 18 17 16 15 15
13 12 7 10 16 18 20 17 18 19 21 24 27 26 25 21 17 14 16 16 16 15 16 16 17 18 18 19 19 19 19 19 20 20 21 21 21 21 21 22 22 21 21 21 20 18 18 17 17
15 12 12 19 21 20 17 16 18 17 19 24 26 26 24 19 16 17 18 17 15 15 16 15 16 17 18 19 19 19 19 20 21 21 21 21 22 22 22 22 22 22 23 23 22 21 20 19 18
16 16 18 21 25 22 18 17 16 17 22 25 24 23 18 17 18 17 18 18 16 14 15 14 14 16 17 18 17 18 20 21 22 23 23 23 23 23 23 23 23 23 23 24 23 23 22 21 20
17 17 20 20 21 19 19 18 18 20 23 23 20 17 16 16 18 18 20 19 15 16 16 16 16 18 18 18 18 19 20 21 22 24 24 24 24 24 23 24 23 23 24 24 24 24 23 23 22
15 16 18 18 16 17 17 18 19 21 21 21 19 15 15 17 18 20 23 23 19 19 19 17 17 18 19 20 20 21 22 22 23 23 23 24 25 25 25 25 26 26 25 25 25 26 25 25 24
13 14 14 13 14 14 14 16 17 18 19 19 18 18 18 19 20 22 24 24 22 20 21 20 18 19 21 21 22 23 24 24 24 24 25 25 26 27 27 27 27 27 27 27 27 26 26 26 25
12 11 10 10 12 12 12 14 17 16 15 18 19 18 19 21 22 24 26 25 23 21 22 22 21 22 23 23 24 25 25 26 26 26 27 27 28 28 29 29 29 29 29 29 29 28 27 27 27
8 9 11 12 11 11 12 16 20 16 15 19 19 19 21 21 22 24 25 25 24 24 24 24 24 24 25 25 26 26 27 28 28 29 29 29 29 30 30 31 31 31 31 31 31 29 29 29 29
7 9 12 12 10 10 11 16 22 16 14 19 19 19 21 22 22 23 24 25 24 24 25 25 26 26 27 27 28 28 29 29 30 30 30 31 31 31 32 33 32 32 31 31 30 30 31 31 30
8 10 12 13 12 10 12 16 18 15 16 18 18 19 20 22 22 23 24 24 24 25 26 26 27 28 29 29 30 30 30 30 31 31 31 32 32 33 33 33 32 32 31 31 31 30 30 31 31
11 10 12 13 13 11 14 17 19 17 18 19 18 19 20 21 20 21 23 23 24 25 26 27 28 28 29 30 31 31 31 31 31 31 32 32 32 32 32 33 32 32 32 31 31 30 31 32 32
13 15 14 14 13 11 13 18 20 19 18 18 18 19 19 20 21 22 23 23 23 24 26 27 28 28 29 30 31 31 32 33 33 32 32 33 33 34 33 33 33 33 32 31 31 31 31 31 32
12 13 13 12 10 11 14 18 21 19 17 16 17 17 18 20 21 21 22 23 23 24 25 26 26 27 28 29 30 31 32 33 33 33 33 33 34 33 34 34 34 32 32 31 32 32 32 32 33
14 12 11 11 13 14 15 17 19 19 17 15 15 16 17 19 20 20 21 22 23 24 24 24 25 25 26 28 29 29 30 31 32 31 32 32 32 33 34 34 34 34 32 32 32 32 32 33 33
11 9 9 12 15 17 16 16 21 20 16 15 14 15 17 18 19 19 20 22 23 23 24 23 24 25 26 27 27 28 29 30 30 30 31 32 32 33 34 34 34 33 33 33 33 33 33 33 32
10 9 10 12 14 16 15 17 21 18 16 18 16 17 17 18 19 20 20 21 21 22 22 22 23 24 24 26 26 26 27 27 28 28 29 30 31 32 32 32 32 32 32 33 33 33 33 33 33
10 10 11 13 12 12 13 15 16 15 16 17 17 18 18 18 19 20 20 20 20 21 21 21 21 22 23 24 25 26 26 26 26 27 27 28 28 29 30 30 30 31 31 31 32 33 33 33 33
9 10 12 12 11 12 12 13 16 16 15 17 18 18 18 19 19 19 20 21 21 21 22 21 22 22 22 22 22 22 23 24 25 25 25 25 26 26 26 27 28 29 29 29 29 30 30 31 32
10 11 10 11 11 12 11 13 17 15 15 15 16 18 18 19 20 20 20 21 22 22 21 21 22 21 21 21 21 21 22 22 22 23 24 25 25 26 26 26 26 26 27 27 27 28 29 29 30
12 12 12 12 12 13 15 19 18 16 16 16 18 18 20 20 21 21 22 22 23 22 22 22 22 21 21 21 21 22 22 22 22 23 23 23 24 23 23 24 24 25 25 25 26 27 28 29 29
14 14 14 15 15 16 17 21 22 21 18 16 18 20 22 22 23 23 24 24 24 23 23 22 22 22 22 22 22 23 23 23 23 23 23 23 23 22 22 23 23 24 24 24 25 26 26 26 27

GEFSSGP_500_meanwind_108.txt.gz
Wind_Speed
16 16 15 14 12 11 13 15 16 17 17 17 16 18 20 20 18 17 16 14 13 13 12 11 11 10 10 10 10 10 10 9 9 9 9 8 8 8 8 8 8 8 8 8 7 7 6 6 5
16 15 14 13 12 12 15 17 18 18 18 17 17 19 21 22 20 20 19 17 16 15 13 13 12 11 11 11 11 11 11 10 10 10 10 9 9 9 9 9 9 9 9 9 8 8 7 7 6
15 15 14 12 12 15 18 20 19 19 19 18 19 20 21 22 23 22 22 21 18 17 16 14 13 13 12 12 13 12 12 12 11 11 10 10 10 10 10 10 10 9 9 9 9 9 9 8 7
15 14 14 13 14 18 20 21 20 19 20 20 20 21 22 22 23 23 22 22 20 18 17 15 15 15 14 14 14 14 13 13 12 12 11 11 11 11 11 10 11 11 10 11 11 10 10 9 8
14 14 13 14 17 19 20 20 20 19 21 21 22 23 23 23 24 23 22 22 21 20 18 17 15 15 15 15 15 15 15 14 13 13 13 12 12 12 12 11 12 12 11 12 12 11 11 10 10
14 13 14 16 20 21 21 20 19 20 21 23 23 24 24 23 23 23 22 21 20 20 17 16 16 16 16 17 17 17 17 16 15 15 14 14 13 13 12 12 12 12 12 13 13 13 12 12 11
13 13 15 18 20 21 20 19 20 21 22 23 24 25 24 23 22 23 23 21 20 20 18 17 16 16 17 17 18 18 18 17 17 16 16 15 14 14 13 13 13 13 13 13 13 14 13 13 13
13 14 17 20 21 21 20 19 20 20 21 23 25 26 25 23 23 24 20 20 19 18 17 17 17 17 17 18 18 18 18 18 18 17 17 16 16 15 15 15 14 14 14 14 14 14 14 14 14
14 15 18 21 23 20 18 17 19 20 21 24 25 27 27 25 24 22 21 21 19 17 17 17 17 17 18 18 18 18 18 18 18 18 17 17 17 16 16 16 15 15 15 15 15 15 15 15 15
15 18 20 22 22 20 18 17 18 20 22 24 25 26 27 26 26 23 22 20 18 16 17 16 14 15 18 19 18 18 18 18 18 18 18 17 17 17 17 17 17 16 16 17 16 16 17 17 16
19 22 23 22 20 18 17 17 19 20 21 22 23 25 27 27 27 26 23 20 17 16 16 15 15 14 15 17 17 17 17 18 18 18 18 18 18 18 18 18 18 18 18 18 18 18 18 18 18
22 25 25 22 19 18 18 18 20 21 21 21 20 23 25 25 26 26 25 21 15 12 12 12 13 13 13 14 16 16 17 18 19 19 19 19 19 19 19 19 18 18 18 18 18 18 19 19 20
24 25 23 21 19 19 19 20 21 22 21 20 20 21 21 22 24 24 20 17 15 12 12 13 12 11 12 14 16 17 17 19 19 20 20 20 20 20 20 20 20 20 20 20 19 19 19 20 20
25 26 23 22 21 21 21 21 22 22 22 21 19 19 20 21 21 20 19 18 17 14 13 11 12 12 12 14 15 16 17 18 18 20 21 21 21 21 20 20 21 21 21 21 21 21 21 21 21
25 26 24 22 20 20 21 21 21 21 21 19 17 16 17 18 17 18 19 18 16 15 14 14 12 13 14 15 17 17 18 19 19 20 21 21 21 21 22 22 22 22 22 22 23 22 22 22 22
24 24 22 20 18 18 18 19 19 19 18 17 15 14 13 14 15 16 17 16 15 15 13 13 12 13 15 16 17 18 18 20 21 21 20 20 21 22 23 23 23 23 24 24 23 24 24 23 24
20 19 18 17 14 15 15 15 15 16 16 16 15 14 13 13 13 14 14 14 15 14 14 15 15 15 15 16 18 18 19 21 22 23 22 22 23 23 23 24 24 24 25 25 25 25 25 25 24
15 16 15 13 11 12 14 13 13 14 15 15 14 13 13 12 11 12 13 13 14 15 14 15 16 16 17 18 19 19 21 21 23 24 24 24 24 24 25 25 25 26 26 26 26 26 26 26 26
14 14 13 11 10 11 12 14 14 14 14 14 14 14 12 10 9 11 12 13 15 16 16 16 16 16 18 19 19 21 23 24 24 25 26 26 26 26 26 26 27 27 27 28 28 27 27 27 27
12 11 11 11 12 13 15 16 16 17 17 16 14 13 11 10 10 11 12 13 15 17 18 17 17 18 18 19 21 22 24 25 26 26 27 27 27 27 28 27 28 28 28 28 28 28 28 27 27
10 10 10 10 11 15 16 16 18 18 17 16 15 14 11 11 11 13 13 13 15 17 18 18 18 19 19 20 21 22 23 24 25 26 27 28 28 28 28 28 28 28 29 29 29 29 28 28 27
10 10 10 11 11 14 16 17 17 18 19 16 14 13 13 12 12 12 12 13 15 16 17 18 19 19 20 20 22 22 23 24 26 26 27 28 28 29 29 29 29 29 29 29 30 30 29 29 29
11 11 11 12 12 13 16 18 19 19 18 16 15 14 13 11 12 13 13 14 15 16 17 18 18 19 20 21 22 23 24 25 26 26 27 27 28 28 28 29 29 29 28 29 29 30 30 30 30
13 14 13 14 14 15 17 19 20 20 19 17 16 14 12 11 12 13 14 15 16 16 17 18 18 19 19 20 21 22 23 24 24 25 25 26 26 27 27 28 28 29 29 29 29 30 30 30 29
14 15 15 16 16 16 17 19 19 19 18 18 17 14 12 12 12 13 14 16 16 17 17 18 18 19 19 20 20 21 21 22 23 24 24 25 25 25 26 27 27 28 28 28 28 29 29 29 29
14 14 15 16 16 16 18 18 17 16 16 16 16 16 14 13 13 14 15 16 16 17 17 18 19 19 20 20 21 21 21 22 22 22 23 23 24 24 25 25 26 26 27 27 28 27 27 28 28
13 14 15 15 16 15 16 16 15 15 15 14 14 15 14 13 13 14 15 16 17 18 18 19 20 21 21 21 21 21 21 21 21 21 22 22 22 23 23 24 24 25 25 25 26 25 25 26 26
14 15 16 16 16 15 15 15 14 16 16 15 14 14 15 15 15 15 16 17 19 20 20 21 21 21 21 21 21 21 21 21 21 21 21 21 22 22 22 22 23 22 22 23 23 23 23 24 25
15 16 17 17 17 17 17 16 16 16 15 13 13 13 14 14 16 17 18 20 21 21 22 22 22 22 22 22 22 22 22 22 22 22 22 22 22 22 22 22 22 22 21 21 21 22 23 23 24
16 18 18 18 18 17 17 17 16 17 17 16 16 15 15 16 17 18 20 21 22 23 23 23 23 23 23 23 23 23 23 23 23 22 22 22 22 22 22 21 22 22 22 21 21 21 22 22 23

GEFSSGP_500_meanwind_114.txt.gz
Wind_Speed
16 16 16 16 16 16 17 20 21 21 20 18 17 15 12 12 10 10 10 10 10 10 10 10 10 9 8 7 6 6 5 5 4 4 4 3 3 3 3 4 5 6 6 7 7 7 8 8 8
16 16 16 16 16 17 20 22 22 22 21 19 17 16 14 12 11 11 12 12 12 12 12 12 12 11 10 9 8 8 7 6 6 5 5 5 5 4 4 5 5 6 6 6 7 7 7 7 7
16 16 17 17 17 19 22 23 24 23 22 20 17 16 14 13 12 12 13 14 14 15 15 14 14 13 12 11 10 9 9 8 8 7 6 6 6 6 6 6 6 6 6 7 7 7 7 7 7
16 16 17 17 18 21 24 24 25 24 22 20 18 17 15 15 14 14 15 16 17 18 17 15 14 13 13 12 12 11 10 10 9 9 8 8 7 7 7 7 7 7 7 7 7 7 8 8 8
16 16 17 18 20 23 25 26 25 24 22 20 19 18 16 16 16 16 16 17 19 18 18 16 15 14 14 13 13 13 12 12 11 10 10 9 9 8 8 8 8 8 8 8 8 8 8 8 9
16 16 18 20 23 25 26 26 25 24 22 20 19 19 18 18 18 17 18 18 19 18 18 17 16 16 15 15 14 14 14 14 13 12 12 11 11 10 10 10 10 10 10 10 10 9 9 9 10
16 17 20 22 24 26 27 26 26 25 23 20 19 18 19 19 17 17 19 19 20 20 19 17 16 17 17 17 17 16 16 16 15 15 14 13 13 12 12 12 12 12 12 12 12 11 10 11 11
17 19 21 24 26 27 27 27 25 24 22 21 20 19 19 18 18 18 18 19 20 20 20 19 16 17 17 18 18 18 17 17 16 16 15 15 14 14 13 13 13 13 14 13 13 12 12 11 12
19 20 23 25 27 27 27 27 25 23 21 20 19 19 20 19 18 18 18 19 19 19 19 20 19 18 17 17 17 18 18 18 18 17 17 16 16 16 15 15 15 14 14 14 14 14 13 13 13
20 22 24 26 27 27 27 27 25 23 21 19 18 17 18 18 18 18 18 18 18 19 20 21 20 19 19 18 17 18 18 19 19 19 18 18 18 17 17 17 17 16 16 16 15 15 14 15 15
22 24 25 27 27 27 27 26 24 22 20 18 16 16 18 17 16 17 17 17 17 18 19 19 18 19 20 19 19 19 19 19 20 20 20 19 19 19 18 18 18 18 17 17 17 17 16 16 16
23 25 26 27 27 26 26 24 22 21 19 17 16 16 17 16 15 16 16 15 15 15 16 16 18 17 18 19 19 20 20 20 20 21 21 20 20 20 20 20 19 19 18 18 18 18 18 17 18
25 26 26 26 25 25 24 24 22 20 19 17 16 16 16 15 15 16 16 16 15 14 15 15 17 17 17 18 19 20 19 19 19 21 21 22 22 22 21 21 21 20 19 19 19 19 19 19 19
25 27 26 25 24 23 23 22 21 20 18 17 16 14 14 15 15 15 14 13 13 13 13 14 15 16 17 19 19 20 20 20 20 20 22 22 23 23 22 22 21 22 22 21 20 20 20 20 20
25 26 25 25 24 23 22 20 19 18 17 17 17 15 14 14 13 13 13 13 14 13 11 12 13 14 16 17 18 19 19 19 20 20 21 23 24 23 24 24 23 23 23 23 22 22 22 22 22
24 25 25 24 24 23 21 19 18 17 17 17 16 14 13 13 12 11 12 13 12 11 11 12 12 13 14 15 17 18 18 20 20 20 20 21 23 23 24 24 25 25 25 25 24 24 24 24 24
22 23 24 24 23 22 20 19 17 16 15 15 14 13 13 13 12 11 12 12 11 10 9 10 11 11 12 13 15 16 18 20 21 22 22 23 23 24 24 25 25 25 26 26 26 26 26 26 25
20 22 23 23 22 21 20 18 17 15 14 13 13 13 13 13 12 11 11 11 10 9 8 9 9 10 12 13 14 16 19 20 21 22 22 23 24 24 25 26 26 27 27 27 28 27 27 27 26
18 21 22 22 21 21 20 18 17 16 14 13 12 12 12 12 12 12 11 11 10 9 8 9 10 11 12 13 14 16 18 20 21 22 23 24 24 25 25 26 27 28 28 28 28 28 29 28 28
17 18 21 22 21 20 19 17 17 16 15 14 13 12 13 13 13 13 12 11 10 10 10 10 10 11 12 14 15 17 19 20 21 22 23 24 26 26 27 27 28 29 29 28 29 30 30 30 30
16 17 18 20 19 18 18 18 16 15 14 14 13 13 13 12 12 13 13 12 12 12 12 11 11 12 13 15 15 17 18 19 21 23 24 25 25 26 27 28 29 29 29 29 29 30 30 30 30
16 16 16 16 16 16 16 15 13 13 14 14 14 14 14 13 13 14 13 13 13 13 13 13 13 13 14 15 15 17 18 20 21 23 23 24 25 25 27 28 30 30 30 30 31 31 31 31 31
15 16 15 15 14 14 14 14 11 11 12 12 13 13 14 15 15 15 14 14 14 14 14 14 14 14 14 15 16 17 18 20 21 23 24 24 25 26 27 29 30 30 30 30 31 31 31 31 31
14 15 15 15 15 14 14 14 12 11 11 12 13 13 13 15 15 15 15 15 15 15 16 16 16 16 16 16 17 18 18 19 20 22 23 24 25 26 27 29 29 29 29 30 30 31 31 31 31
14 14 15 15 16 16 15 15 13 12 13 13 14 14 14 14 14 15 16 16 17 17 17 17 17 17 18 18 19 19 20 21 21 22 23 23 24 26 26 27 28 29 29 29 30 30 31 31 31
14 14 14 15 15 15 16 16 14 14 15 14 14 13 14 14 14 16 17 17 18 18 18 18 18 19 19 20 20 20 21 22 22 22 23 24 24 25 25 26 27 28 28 28 29 30 30 30 31
13 14 14 15 15 16 16 15 15 15 15 16 15 15 15 16 17 18 18 19 19 19 20 20 21 21 21 21 22 22 22 22 23 23 24 24 24 24 25 26 26 27 27 27 28 28 29 29 29
14 15 15 16 16 16 16 15 15 15 15 16 16 16 16 18 19 20 19 19 19 20 21 22 22 23 23 23 23 23 23 24 24 24 24 24 24 24 25 25 25 26 26 27 27 27 28 28 29
14 15 15 15 16 17 16 15 15 16 16 16 16 16 17 19 20 21 20 20 20 21 23 24 24 24 25 25 25 25 25 25 25 25 25 25 25 25 25 26 26 26 27 27 27 27 27 27 27
14 15 15 16 16 17 17 16 16 17 16 16 17 17 18 18 20 21 21 21 22 22 24 25 25 26 26 26 26 26 26 26 26 26 26 25 25 25 25 26 26 26 26 26 26 26 26 26 26

GEFSSGP_500_meanwind_120.txt.gz
Wind_Speed
16 16 16 16 16 16 18 19 18 17 16 14 13 11 11 9 8 8 8 8 7 7 6 5 5 5 5 6 7 8 8 8 7 6 6 5 5 4 4 3 2 2 2 3 4 4 4 4 5
17 16 17 17 16 16 20 20 19 18 16 15 14 13 12 11 10 9 9 9 8 8 7 6 5 6 6 7 8 9 9 9 8 8 7 6 6 5 4 3 2 1 1 1 2 2 3 3 4
17 17 17 18 18 18 22 21 20 18 17 16 15 14 13 12 11 10 11 11 9 8 8 8 7 8 8 9 10 11 11 10 10 9 9 8 7 6 6 5 4 3 2 1 1 2 2 2 3
17 18 18 19 20 23 23 21 20 19 18 16 15 14 14 13 12 11 11 11 10 9 9 9 9 9 9 11 12 12 12 12 12 12 11 10 9 8 7 6 6 5 4 3 3 3 3 3 3
18 18 18 19 22 23 23 22 20 19 18 17 15 15 15 14 13 12 12 12 11 11 10 9 10 10 11 12 13 13 13 14 14 13 13 12 11 10 9 9 8 7 7 6 6 5 5 5 5
18 18 18 20 22 23 23 22 21 20 19 18 17 16 16 15 14 13 13 13 11 11 11 11 11 11 12 13 14 15 15 15 16 15 15 14 13 13 12 11 10 10 9 9 8 8 7 7 7
19 19 20 21 22 23 23 22 21 20 20 19 18 17 16 15 15 15 15 14 13 12 12 12 12 12 13 14 15 16 17 17 18 18 17 17 16 15 15 14 13 12 12 11 11 10 9 9 9
19 19 21 22 23 24 23 22 21 21 21 19 18 17 16 16 16 16 17 16 14 13 13 12 13 14 15 16 17 18 19 19 19 20 20 19 19 18 17 16 15 14 13 13 12 12 11 11 10
19 20 21 23 23 23 22 22 21 21 20 20 19 18 18 17 17 17 17 15 15 15 14 14 14 15 17 18 19 20 21 21 21 21 22 21 21 20 19 18 17 16 15 14 14 13 13 13 12
20 21 24 23 23 23 22 22 21 20 20 20 19 18 18 17 17 17 17 16 16 16 16 16 15 16 17 19 20 21 23 23 22 22 23 23 22 22 21 20 19 17 17 16 15 15 15 14 14
21 23 23 23 23 23 22 21 21 20 20 20 19 18 18 18 18 17 17 17 16 16 16 16 17 17 18 20 22 22 23 24 24 24 25 24 24 23 22 22 21 19 19 18 17 16 16 16 16
22 22 23 23 23 22 22 21 21 20 20 19 18 18 17 17 18 18 18 17 17 16 15 15 16 17 19 21 24 24 24 25 26 26 26 25 25 24 24 23 22 21 20 19 19 18 18 18 17
21 22 22 22 22 22 21 20 20 20 19 19 18 18 17 17 18 18 18 17 15 14 14 15 16 17 19 21 23 25 25 26 27 26 26 26 26 25 25 25 24 23 22 21 21 20 20 19 19
20 21 20 21 21 21 20 20 20 19 19 18 17 17 18 17 17 17 17 16 14 14 15 15 17 17 19 21 22 24 26 26 27 27 27 27 26 26 25 25 25 24 23 23 22 22 22 21 20
19 19 20 20 20 19 19 19 19 18 17 16 16 16 16 16 16 16 16 15 14 15 15 17 17 19 20 22 23 24 24 25 26 26 26 27 27 27 26 26 26 25 25 25 25 24 23 23 22
17 18 19 19 19 19 18 17 17 17 17 16 16 17 17 16 16 15 16 15 15 16 17 17 18 19 20 23 23 25 25 25 26 26 26 26 26 27 27 27 27 27 26 26 26 26 25 25 24
16 16 17 19 19 18 17 17 17 17 17 17 17 17 17 17 16 16 16 16 16 17 17 18 19 18 19 22 23 24 24 26 26 25 25 26 26 27 28 28 27 27 27 27 27 27 27 26 26
15 15 16 18 18 17 17 17 16 16 16 16 16 17 17 16 15 16 17 17 17 18 19 19 19 18 18 20 21 22 23 25 26 26 26 27 27 27 28 28 28 28 28 28 28 28 28 28 28
16 16 16 18 17 16 17 16 16 16 16 16 16 16 15 15 15 15 16 17 17 17 18 18 19 18 18 18 19 21 22 23 25 25 25 26 27 28 28 27 28 28 28 28 29 30 29 29 29
14 15 15 17 16 16 16 16 16 16 16 16 15 15 15 15 15 15 16 16 17 17 16 16 17 17 17 18 19 21 22 23 24 25 26 26 26 26 26 27 28 28 28 29 29 29 30 29 29
13 14 15 15 15 15 15 15 15 15 15 15 15 15 15 15 16 16 16 16 16 16 16 15 16 16 17 17 19 21 22 22 23 25 25 26 27 27 27 28 28 29 29 29 30 29 30 30 30
12 13 14 14 13 14 14 15 16 15 15 14 15 15 16 17 17 17 17 17 17 16 16 16 16 16 17 17 17 19 20 21 22 23 24 25 26 26 27 28 29 29 29 29 29 30 30 30 31
12 12 12 13 13 14 14 14 16 15 15 15 14 15 16 17 18 18 18 18 18 18 18 18 17 17 18 17 17 19 20 21 21 22 24 24 25 26 27 28 29 29 30 30 30 30 30 30 30
12 12 12 12 12 13 14 14 15 14 13 14 14 15 15 16 16 17 18 18 19 19 19 19 18 19 19 18 18 19 21 22 22 23 24 25 26 27 28 29 30 30 30 30 30 30 30 30 30
12 11 11 12 12 13 15 14 15 15 15 15 15 16 17 16 17 18 18 19 19 19 19 19 19 20 20 20 20 20 21 22 23 24 25 25 26 27 28 28 28 29 30 30 31 31 31 31 31
12 12 12 13 13 14 16 15 16 16 16 16 16 16 17 18 18 19 19 19 19 20 20 21 21 21 21 21 21 22 22 23 24 25 26 26 26 26 27 27 28 29 29 30 30 31 31 31 32
14 14 14 13 12 13 14 15 15 15 16 17 17 17 19 19 19 20 20 20 20 21 22 22 22 22 23 23 23 23 23 24 25 26 26 26 26 27 27 28 28 28 29 29 30 30 30 31 31
14 15 15 14 14 13 13 14 16 16 17 17 18 19 20 21 21 20 21 22 22 23 24 24 24 24 25 25 25 25 26 26 27 27 28 28 28 28 29 29 30 30 30 30 30 30 30 30 30
14 15 15 15 14 13 13 16 16 16 17 18 18 19 21 21 21 22 23 23 23 24 25 25 26 27 26 26 26 27 28 28 28 28 29 29 29 29 30 30 31 31 31 31 31 31 31 31 30
14 14 15 15 15 15 14 17 16 17 17 18 19 19 20 21 22 23 24 24 25 26 26 26 26 26 26 26 27 28 28 28 28 28 29 29 29 30 30 31 31 31 31 31 32 32 32 32 31

GEFSSGP_500_meanwind_126.txt.gz
Wind_Speed
14 13 12 11 10 8 5 6 12 17 17 16 14 14 13 12 11 11 11 11 11 11 10 10 10 10 9 9 9 9 9 9 10 10 9 9 9 8 8 7 6 5 4 3 1 0 0 1 2
14 14 13 11 9 5 2 9 16 19 18 15 14 15 14 13 13 13 12 12 12 12 12 12 12 11 11 11 11 11 11 11 11 11 11 11 11 10 9 9 7 7 6 4 3 2 2 1 1
15 14 13 11 8 4 5 15 20 21 18 16 15 16 14 13 13 13 13 13 13 13 14 14 13 13 13 13 13 13 13 12 13 13 13 13 13 12 11 11 10 9 7 6 5 4 3 3 3
16 15 13 11 8 6 13 20 22 21 18 17 17 15 14 13 13 13 12 13 13 13 13 14 15 15 14 14 15 14 14 14 15 15 15 15 15 14 13 13 12 11 10 9 7 6 5 5 5
16 15 13 11 8 12 19 22 23 19 18 16 17 16 15 14 14 13 13 14 13 12 13 14 15 16 16 16 16 16 16 16 16 17 17 17 17 16 15 14 14 13 12 11 9 8 8 7 7
15 14 12 9 9 17 23 25 22 18 20 18 18 17 16 14 14 14 14 14 14 13 14 15 16 16 17 17 17 18 18 18 18 18 19 19 19 18 17 16 16 15 14 13 11 10 10 9 9
15 15 11 8 12 21 24 23 19 18 18 19 18 16 15 14 14 14 14 15 15 15 16 16 16 16 18 18 18 19 20 20 20 20 20 20 20 20 19 18 17 17 16 15 14 13 12 12 11
15 15 12 11 15 21 25 22 19 20 21 19 16 16 14 13 14 14 15 16 16 16 17 17 17 18 19 19 20 20 21 21 21 22 22 22 22 21 21 20 19 18 18 17 16 15 14 14 13
14 14 11 10 16 22 25 21 21 20 21 19 18 17 14 13 14 15 16 17 18 17 17 18 18 19 20 21 21 21 22 23 23 24 24 24 24 23 23 22 21 20 20 19 18 17 17 16 15
14 12 10 14 19 23 23 21 19 20 21 21 19 15 15 15 15 16 16 18 18 18 18 18 19 20 21 22 23 23 23 25 25 25 26 26 26 25 24 24 23 22 22 20 20 19 19 18 17
16 14 15 22 24 23 21 20 19 19 20 20 18 14 15 16 16 17 17 18 18 19 19 19 20 20 21 22 24 24 24 25 25 26 26 27 27 27 25 25 24 24 23 22 22 21 20 19 18
18 18 20 23 24 23 20 18 17 19 19 17 15 15 16 17 17 18 19 19 19 19 19 20 21 21 21 23 24 23 24 25 26 26 27 28 28 28 26 25 25 25 25 24 23 22 21 21 20
18 20 22 22 21 22 21 21 19 17 17 18 18 17 16 18 19 19 19 19 20 20 21 21 21 22 22 22 23 25 25 26 25 25 27 27 28 28 28 27 27 27 26 25 24 23 23 22 21
16 19 20 20 20 21 21 21 20 18 18 18 18 16 17 19 19 19 19 20 21 21 20 20 21 22 22 23 24 25 26 26 26 27 28 28 28 29 28 28 29 28 27 26 25 24 23 23 22
17 18 18 18 18 18 18 19 20 20 18 18 17 17 18 19 19 20 20 21 21 21 21 20 20 21 22 22 24 25 25 25 25 26 26 26 27 27 28 28 27 27 28 27 26 25 25 23 22
15 16 17 17 16 16 16 20 20 19 17 17 17 18 19 19 19 20 20 21 21 21 21 21 21 21 22 22 23 24 24 24 25 26 27 26 27 27 27 28 26 25 25 26 26 25 25 24 22
13 16 17 16 14 14 17 20 20 17 17 17 18 18 18 19 20 20 20 21 21 21 22 22 22 23 22 22 22 23 24 24 25 26 26 26 27 27 26 25 25 24 23 24 24 25 25 24 23
12 14 15 15 15 14 17 20 20 16 16 16 17 18 18 19 20 19 20 20 20 21 21 21 21 22 23 23 24 24 24 25 25 25 25 25 25 25 25 25 24 24 24 24 23 23 23 24 23
11 12 15 15 17 15 18 19 19 17 16 16 18 19 19 18 18 19 20 20 20 20 20 21 21 22 23 24 24 25 25 25 25 25 25 25 25 24 24 24 24 24 24 23 23 22 23 23 23
12 13 15 16 17 16 17 17 17 16 16 16 18 18 18 17 18 20 19 19 20 20 20 21 22 23 24 24 25 25 24 25 24 23 23 23 23 23 23 23 23 23 23 23 23 23 23 22 23
12 14 15 15 16 15 16 17 17 16 17 17 18 19 19 18 19 20 20 20 21 21 21 22 23 24 24 25 25 24 24 23 22 22 22 22 22 22 22 23 23 23 23 23 22 23 23 23 23
14 14 15 15 17 19 19 19 19 18 17 18 19 19 19 19 19 20 21 21 22 22 22 22 23 23 24 24 23 23 22 21 21 21 22 22 22 22 23 22 22 23 23 23 23 24 24 24 23
12 14 14 15 17 19 19 19 20 19 21 20 19 19 19 20 19 20 21 21 22 22 22 22 22 23 23 23 22 21 21 21 20 21 21 21 21 21 21 22 22 23 23 23 24 24 24 25 24
12 13 14 16 19 20 20 20 21 21 20 19 19 19 18 20 21 21 21 21 21 22 22 23 23 23 23 22 22 21 21 21 21 21 21 20 21 21 22 22 23 23 23 24 25 25 25 25 25
13 13 14 16 19 19 19 21 22 22 21 19 19 18 18 21 22 22 22 22 23 24 24 24 24 24 24 24 23 24 23 22 21 20 20 21 21 22 22 23 23 24 24 25 25 26 26 26 26
14 14 15 16 17 16 18 21 21 18 18 19 18 19 20 21 22 23 24 24 24 25 26 26 25 25 25 25 25 24 24 23 22 21 22 22 22 23 24 24 24 25 25 25 25 25 26 26 26
13 14 16 17 17 16 18 18 18 17 17 17 18 20 21 22 24 25 25 25 26 26 27 27 27 27 27 26 26 25 25 25 25 24 25 25 24 25 25 26 26 26 27 27 27 26 27 27 27
13 14 16 16 16 16 16 18 18 18 17 18 19 21 22 24 25 26 26 27 28 28 28 28 28 28 28 27 27 27 27 27 27 26 26 26 26 27 27 28 28 27 27 28 28 28 29 28 28
15 14 16 16 15 16 17 19 18 18 18 19 19 22 24 25 27 26 28 28 28 28 28 28 28 28 28 28 28 28 28 27 27 27 27 27 27 28 28 28 28 29 29 29 29 30 30 30 30
14 14 16 17 18 18 20 21 20 20 21 21 22 24 26 26 27 28 27 27 28 28 27 28 28 28 28 28 28 28 28 28 28 27 27 27 27 28 28 28 28 28 29 29 30 30 30 30 30

GEFSSGP_500_meanwind_132.txt.gz
Wind_Speed
10 9 8 9 9 11 12 12 12 12 10 10 11 13 13 12 9 8 8 8 8 7 6 6 7 7 7 7 8 8 8 9 10 10 10 11 11 11 10 10 9 9 8 7 7 6 6 5 4
11 10 10 10 11 13 14 15 14 13 11 11 13 15 15 14 12 10 9 8 9 9 8 8 8 8 9 9 10 10 10 10 11 12 12 12 12 12 12 12 11 11 10 9 9 8 7 7 6
12 11 11 12 14 16 17 16 16 15 13 12 15 17 17 16 14 12 10 10 10 10 9 9 9 9 10 11 11 12 12 12 13 13 13 14 14 14 14 13 13 12 12 11 11 10 9 8 7
13 13 13 15 17 18 19 18 17 16 16 15 16 17 18 17 16 13 11 11 11 10 9 9 10 10 11 12 12 13 13 14 14 15 15 15 15 15 15 15 15 14 14 13 12 11 10 9 8
14 15 15 17 19 19 19 18 17 18 18 18 18 17 18 18 15 12 13 12 11 11 10 10 11 11 12 13 13 14 15 16 16 16 16 16 16 17 17 17 17 16 15 15 14 13 12 11 10
15 15 17 19 21 21 20 18 19 20 20 20 20 19 18 16 13 12 12 12 12 11 11 11 12 13 14 15 15 16 16 17 17 18 18 17 17 18 18 18 19 18 17 16 16 15 14 13 12
16 16 18 20 22 22 21 20 20 21 22 22 20 19 17 15 13 13 12 11 12 12 12 13 13 14 15 15 16 17 18 18 19 19 19 19 19 19 19 20 20 20 19 18 17 16 15 15 14
16 17 20 21 23 24 23 21 22 22 23 22 21 20 18 15 13 13 13 12 13 13 13 14 14 15 16 17 17 18 19 19 20 20 20 20 20 20 20 21 21 21 21 20 19 19 17 17 16
16 18 22 24 25 25 23 22 22 23 23 21 20 18 18 16 14 13 13 13 13 14 14 15 15 16 17 18 19 20 20 21 21 21 22 22 22 22 22 22 22 22 22 22 21 20 19 18 17
18 21 24 26 26 25 22 21 22 24 23 21 19 18 18 16 14 13 13 12 13 14 15 15 16 17 18 19 20 20 20 21 22 23 23 23 23 24 24 24 23 24 24 24 23 22 22 20 19
20 23 25 26 25 23 22 21 22 23 22 20 19 19 18 16 14 14 13 13 13 14 15 16 17 18 18 20 21 21 20 21 22 23 24 25 25 25 25 25 24 24 25 25 24 24 23 22 20
22 25 26 25 23 22 21 21 22 22 22 19 18 17 15 14 13 13 13 13 14 15 16 17 17 18 19 20 20 20 21 21 22 23 24 24 25 26 26 26 26 26 25 25 25 25 24 23 22
25 25 25 25 23 23 21 21 21 22 20 20 18 17 16 17 14 14 14 15 15 16 17 18 19 19 20 21 22 21 22 22 23 24 25 26 25 25 26 26 27 26 26 26 25 25 25 24 24
25 26 26 25 24 23 22 22 22 21 20 20 19 17 17 17 16 16 15 15 15 16 17 18 19 20 21 21 22 22 23 23 23 23 24 26 25 25 26 26 26 27 26 26 26 26 25 24 24
25 26 26 24 23 24 23 23 23 22 20 19 18 17 17 16 15 15 15 15 16 16 17 18 19 21 21 21 22 22 23 22 22 23 23 23 24 25 26 27 27 27 26 25 26 26 27 26 25
23 24 23 22 23 23 23 23 22 21 19 18 17 17 17 16 15 14 15 16 16 17 18 20 20 21 22 23 23 23 23 22 22 23 23 22 22 23 23 24 25 25 25 25 25 25 25 25 24
19 20 19 20 21 22 22 21 21 20 19 18 18 18 17 16 16 15 16 17 18 18 19 20 20 21 22 23 23 24 23 23 23 23 22 22 23 23 24 25 24 24 23 23 23 23 23 24 23
15 16 17 18 18 20 20 20 20 19 18 17 16 16 17 17 16 16 16 17 18 18 19 19 20 20 21 22 23 23 23 23 22 22 22 23 23 24 25 24 24 24 23 23 23 23 23 23 22
13 14 14 15 17 17 18 18 19 18 19 17 16 16 16 18 18 16 16 17 18 18 18 18 19 19 20 21 22 22 22 22 22 22 22 22 23 23 23 24 24 23 24 23 23 22 22 22 21
13 14 13 13 14 16 15 16 17 17 18 19 19 17 16 15 16 17 17 17 18 19 19 19 19 20 21 21 22 23 24 24 24 23 23 23 22 22 23 23 23 23 23 22 22 21 20 20 20
12 14 13 13 14 16 15 15 17 18 18 19 18 17 16 15 14 15 16 17 18 19 19 20 21 21 21 22 22 23 24 24 24 24 24 24 23 22 22 21 21 21 21 21 21 20 20 20 20
12 13 13 13 14 15 15 16 17 20 21 21 20 18 17 16 14 15 16 16 18 19 20 20 21 21 21 21 22 22 23 23 23 23 23 21 21 21 21 21 21 21 20 20 20 20 21 21 21
13 12 13 14 14 16 16 17 17 19 20 20 20 18 17 16 15 16 16 17 18 19 20 21 21 22 22 22 23 23 22 23 23 22 21 21 21 20 20 21 20 20 21 20 20 20 21 21 21
12 12 14 15 15 17 17 19 19 20 19 21 21 19 18 18 17 17 18 19 19 20 20 21 22 23 23 23 23 23 23 23 22 21 21 21 21 21 20 20 20 20 21 21 21 22 22 22 22
14 14 14 14 15 17 17 20 20 19 19 19 20 20 20 18 17 17 17 19 20 21 22 23 23 24 24 24 24 24 24 23 22 21 20 21 22 22 21 20 19 19 20 20 21 21 21 22 22
14 15 16 16 17 17 18 20 20 19 20 21 20 20 21 20 19 19 19 20 21 22 23 23 23 24 25 25 25 25 25 24 23 22 22 22 22 21 21 20 20 20 21 21 21 22 22 22 23
13 15 17 18 18 18 18 19 20 20 20 20 21 21 21 22 22 21 20 20 22 22 23 23 23 24 24 26 26 26 26 25 24 23 23 22 22 22 22 22 22 22 22 23 23 24 24 24 24
15 16 17 18 19 19 19 19 19 19 19 20 20 19 18 19 20 20 21 21 22 22 23 23 23 24 24 25 26 26 26 26 25 25 24 23 23 23 23 24 24 24 24 25 24 25 25 26 27
14 15 16 16 16 16 17 17 18 18 18 19 19 19 19 19 19 19 20 22 23 23 23 23 23 24 25 25 26 26 26 26 25 25 25 24 24 23 23 23 24 25 26 26 26 27 27 27 28
14 14 14 15 16 16 17 17 17 17 17 17 16 17 18 19 20 21 21 21 22 22 23 23 24 24 24 24 24 26 26 25 25 25 24 24 24 24 24 24 24 24 25 25 26 27 28 28 28

GEFSSGP_500_meanwind_138.txt.gz
Wind_Speed
11 11 12 13 14 13 13 13 11 9 7 6 5 4 4 3 5 7 8 7 8 8 8 9 9 8 7 7 7 7 7 7 6 7 7 7 7 8 8 9 9 9 9 9 9 9 9 9 9
12 13 14 14 15 15 15 14 13 11 9 7 6 6 5 5 6 8 9 9 9 9 9 10 10 9 9 9 8 8 8 8 8 9 9 9 9 9 10 10 10 10 10 10 10 10 10 10 9
13 14 15 15 16 17 17 15 14 12 10 9 8 7 7 7 9 11 11 11 10 11 11 11 10 10 9 9 9 9 10 10 10 10 10 11 11 11 11 11 11 11 11 11 11 11 10 10 10
14 15 16 17 18 19 18 17 15 13 12 11 9 9 8 10 12 13 13 13 13 13 12 12 11 11 10 10 10 10 11 11 11 12 12 12 12 12 13 13 13 13 13 13 12 12 11 10 10
16 17 18 18 20 20 19 18 17 15 14 13 11 10 10 12 13 14 14 14 14 14 13 13 12 11 11 11 11 11 12 12 13 13 13 13 13 14 14 14 14 14 14 14 14 13 12 12 11
16 18 19 20 22 22 21 20 19 17 15 14 12 12 12 13 14 15 15 14 14 14 14 14 13 12 12 12 12 13 13 14 14 15 15 15 15 15 15 15 16 16 16 16 15 14 14 13 12
18 19 21 23 24 24 22 21 20 18 17 15 14 14 15 16 16 16 16 15 15 15 15 14 13 13 13 13 13 14 14 15 15 16 16 16 16 16 16 17 17 18 18 18 17 16 16 15 14
19 21 23 25 26 25 23 22 21 19 18 17 16 16 17 17 16 16 15 15 15 15 14 14 14 14 14 14 14 15 16 16 16 17 17 18 18 18 18 19 19 20 20 19 19 18 17 17 16
21 23 25 27 28 27 25 24 22 20 19 18 17 17 17 16 15 15 15 16 16 16 16 15 14 15 15 15 16 16 16 17 17 18 18 19 20 20 20 20 20 21 21 21 20 20 20 19 19
23 25 27 28 28 27 26 24 23 21 21 19 18 18 17 16 15 15 16 17 17 16 16 16 15 15 16 16 17 17 17 17 18 18 19 20 20 20 21 21 21 21 22 22 22 22 21 21 21
24 26 28 29 29 28 27 25 23 22 21 20 19 18 17 16 16 16 16 17 17 17 16 16 16 16 17 17 18 18 18 18 18 19 20 20 19 20 21 22 22 22 22 23 23 23 23 22 22
25 27 29 30 28 28 27 25 24 23 21 20 19 19 18 16 16 16 16 17 17 17 17 17 18 18 18 18 18 18 19 19 19 20 20 21 21 21 22 23 23 24 24 24 24 23 24 23 22
25 28 28 29 29 28 27 26 25 24 22 20 19 18 17 17 18 17 17 17 17 17 18 18 18 18 18 18 18 18 19 19 19 20 21 21 21 22 23 24 24 25 25 26 26 25 25 25 24
25 27 28 28 28 28 28 27 26 24 22 20 20 19 19 19 19 19 19 18 17 17 18 19 19 19 19 19 19 20 20 20 21 21 22 22 22 23 23 24 25 26 26 26 27 26 27 27 26
24 26 26 27 27 27 27 26 26 23 21 21 20 20 20 20 19 20 20 19 19 19 19 20 20 19 18 19 19 20 21 21 21 21 22 23 23 23 23 24 25 25 26 26 27 27 27 28 27
22 24 25 26 26 27 27 26 25 23 22 22 21 21 21 21 21 21 21 21 21 21 20 21 20 20 20 20 20 20 21 21 21 22 23 23 24 24 25 25 25 26 26 26 27 27 26 27 27
21 23 24 25 25 25 26 25 24 23 23 22 21 21 22 22 22 21 22 23 23 21 20 20 20 21 21 21 20 20 21 21 22 22 23 24 24 26 26 26 26 26 26 26 26 26 26 27 28
20 21 22 24 24 24 24 25 24 24 23 23 22 22 22 23 23 22 22 22 22 22 22 21 20 20 21 21 20 20 21 21 22 23 24 25 25 25 25 25 25 26 25 25 25 25 26 27 27
20 20 21 22 24 24 23 23 23 23 23 23 23 22 22 22 22 22 22 22 23 23 22 22 21 21 21 21 21 21 22 23 23 24 25 25 25 25 26 25 25 25 25 26 26 26 26 26 26
20 20 20 22 23 23 23 23 24 24 22 22 22 22 21 21 21 22 23 24 24 23 23 21 22 21 21 21 22 23 23 24 24 24 24 24 25 25 25 25 25 25 25 25 24 25 25 26 25
18 19 20 21 22 23 23 23 22 21 20 21 21 21 20 19 20 22 24 24 24 24 24 22 22 22 22 22 22 23 24 24 24 25 26 26 26 25 25 25 25 25 24 24 25 25 25 25 26
16 17 18 19 20 21 21 22 21 21 20 20 19 18 18 20 21 22 24 24 24 24 24 23 23 24 24 23 24 24 24 25 26 26 27 27 26 26 25 24 24 24 25 25 26 25 26 26 26
15 15 16 17 18 19 20 20 19 19 19 18 17 17 18 18 19 20 22 23 24 24 23 23 24 25 25 25 25 25 26 26 26 27 27 28 27 27 26 25 25 25 25 25 26 26 27 27 27
15 15 16 16 17 18 18 20 19 18 17 17 17 17 17 18 19 20 21 23 24 24 25 26 26 26 26 25 25 26 27 27 27 27 28 28 27 27 27 26 26 26 26 25 25 25 26 27 27
15 15 16 17 17 18 17 18 18 17 17 17 17 17 17 18 19 20 21 23 23 25 26 26 25 25 25 25 26 27 27 28 28 28 28 28 27 26 26 26 26 26 26 27 26 25 26 26 26
16 16 17 18 18 18 18 19 18 17 18 18 18 18 18 18 19 20 21 22 22 24 25 24 25 26 26 26 26 27 26 27 27 27 27 27 27 26 26 25 26 26 27 28 28 27 27 26 25
16 17 18 18 18 19 19 18 18 18 18 18 18 18 19 19 19 19 19 20 21 22 24 24 25 26 25 26 26 26 27 27 27 27 27 27 27 26 26 26 26 27 27 27 27 28 28 27 27
15 15 17 18 19 19 19 18 18 17 17 17 18 18 18 18 19 19 19 19 20 22 23 24 24 25 26 26 27 27 28 28 28 28 27 27 27 27 27 26 27 27 27 27 28 28 28 28 28
14 15 15 16 17 19 19 17 17 17 16 17 18 19 19 20 20 20 20 20 21 22 22 23 24 25 25 25 26 27 27 28 28 28 28 27 27 27 27 27 27 27 27 27 28 28 28 29 29
14 14 15 16 17 17 18 16 15 16 16 17 18 18 19 19 19 19 19 20 21 22 23 23 24 24 24 25 25 25 26 27 27 27 28 28 28 28 27 26 26 26 26 26 27 28 29 30 30

GEFSSGP_500_meanwind_144.txt.gz
Wind_Speed
14 13 13 12 11 10 10 9 7 6 6 5 4 4 3 3 2 2 3 3 4 4 4 4 5 6 7 7 8 8 8 7 7 7 6 6 5 4 4 4 4 4 4 5 5 5 5 5 5
14 14 13 13 12 11 12 10 9 8 7 6 5 5 4 4 4 4 4 5 5 6 6 6 6 7 8 8 9 9 9 8 8 8 7 7 6 6 6 5 5 5 5 5 5 5 5 6 6
14 14 14 13 13 13 14 11 10 9 8 7 7 6 6 6 6 6 6 6 6 6 7 7 8 9 9 9 9 9 9 9 8 8 8 7 7 7 7 7 6 6 6 6 7 7 6 7 6
15 15 15 15 15 15 14 12 12 11 9 9 8 8 8 8 7 7 7 8 8 8 9 9 10 11 11 11 10 10 10 10 10 9 9 8 8 8 8 8 8 8 8 8 8 8 8 8 8
15 15 16 16 16 15 14 13 13 13 11 10 10 10 10 9 9 9 9 10 10 10 11 12 12 12 12 12 11 11 12 11 11 11 10 10 10 10 10 10 9 9 9 9 10 10 9 9 9
16 15 16 17 17 16 15 14 14 14 13 13 12 12 11 11 11 12 12 12 12 12 12 13 13 13 13 13 13 13 13 13 12 12 12 12 12 12 12 12 11 11 11 11 11 11 12 11 11
17 17 18 18 18 17 16 15 15 15 15 15 14 14 13 12 13 13 13 12 12 12 13 13 14 14 15 15 15 14 14 14 14 14 14 13 13 13 14 13 13 13 13 13 13 13 14 13 13
18 18 19 20 19 19 17 17 17 17 17 16 16 15 15 14 14 15 14 13 13 13 13 14 15 16 16 16 16 16 16 16 16 16 16 15 15 15 15 15 15 15 15 15 15 15 15 15 15
18 19 21 21 21 20 19 18 18 17 17 17 17 16 16 16 16 16 16 15 14 14 15 16 17 17 17 18 17 17 17 17 18 17 16 16 16 17 16 17 17 17 17 17 17 16 16 17 17
18 21 22 21 21 20 19 19 18 18 18 18 18 18 18 18 18 17 17 16 15 16 16 17 18 19 19 18 18 18 18 18 18 18 17 17 17 18 18 19 19 18 18 18 18 18 18 18 18
20 22 22 21 20 20 20 19 19 19 20 20 20 20 19 19 18 18 17 17 17 17 17 18 19 20 20 20 19 19 19 19 19 19 19 19 19 19 19 19 19 20 20 20 20 20 19 19 20
20 21 21 21 21 21 21 20 20 21 21 21 21 21 21 19 18 18 18 18 17 18 18 19 20 21 21 21 21 20 20 19 19 20 20 20 20 20 20 19 20 21 21 22 21 21 21 21 21
20 20 21 21 22 21 21 21 21 22 22 22 22 21 20 19 19 19 19 18 19 19 19 20 21 21 21 22 22 21 21 21 21 21 21 21 22 21 21 21 22 22 22 22 22 22 23 23 23
18 19 20 21 22 22 21 21 22 22 22 22 22 21 21 20 20 20 21 21 21 21 21 21 22 22 21 22 22 22 22 22 21 21 22 22 23 22 22 23 23 23 23 23 23 23 23 23 25
16 18 20 21 22 22 22 22 22 22 22 22 22 22 22 22 22 22 22 22 22 22 21 22 22 23 23 23 23 23 23 23 23 23 23 23 23 23 24 24 23 23 24 24 24 25 25 25 26
15 16 18 20 21 21 20 21 23 22 22 22 23 23 23 23 23 23 23 23 23 22 22 23 23 23 23 23 23 24 24 24 24 23 23 23 24 24 25 25 24 25 25 25 26 27 28 27 27
14 15 16 18 19 20 20 22 23 23 22 22 22 23 22 23 24 24 24 25 24 24 23 23 23 24 24 24 24 24 24 25 25 25 24 24 24 25 25 26 25 26 26 26 27 27 27 28 28
14 14 15 17 18 18 19 21 21 22 21 22 22 23 23 24 24 24 24 25 25 25 24 24 24 25 25 25 26 25 25 26 26 25 25 25 26 26 26 27 27 27 27 27 27 27 28 27 28
13 14 15 17 17 18 19 20 20 20 21 21 22 23 23 24 24 23 24 24 25 25 25 25 26 26 26 27 27 26 26 26 26 26 26 26 27 27 28 28 28 28 28 28 27 28 29 28 28
13 14 15 17 17 18 19 21 21 21 21 22 22 22 23 23 23 23 23 24 25 25 25 25 26 27 27 28 27 26 26 26 27 27 26 26 28 29 29 28 29 29 30 30 29 29 29 29 29
13 14 15 16 17 18 20 20 21 21 21 21 21 21 22 23 23 24 24 24 26 26 26 27 27 28 29 28 28 27 27 27 27 27 27 27 28 29 29 29 30 30 30 31 31 30 30 30 29
12 14 15 16 16 17 18 18 20 21 21 22 22 22 22 23 25 25 25 25 26 27 27 28 28 28 29 29 29 28 28 28 28 28 28 29 30 31 31 31 31 30 31 31 30 31 31 30 29
12 13 14 15 15 16 17 17 19 21 21 22 23 23 23 24 24 25 25 25 26 26 27 28 28 28 28 29 29 30 29 29 28 28 28 29 30 31 31 31 31 32 31 31 31 31 31 30 30
13 13 14 14 14 15 16 18 18 20 21 21 22 22 22 22 23 24 24 25 26 26 27 27 28 28 28 28 28 28 28 28 28 28 29 30 30 30 30 30 30 31 31 31 31 31 31 30 30
14 13 13 14 15 16 18 18 19 20 20 20 20 20 21 21 22 23 24 25 26 27 27 28 27 27 27 27 27 27 28 28 28 29 29 30 30 30 30 30 30 30 30 30 30 31 31 31 30
14 14 14 15 15 16 19 20 19 19 19 18 18 19 19 20 21 22 23 24 25 26 26 27 27 27 27 28 27 28 28 28 28 29 29 29 30 31 31 31 30 30 30 31 30 30 31 31 30
15 15 16 17 17 17 18 20 19 19 19 19 19 19 19 19 20 21 22 23 23 24 25 25 25 26 26 27 27 28 28 29 29 29 30 30 31 31 32 31 31 30 30 31 31 30 30 30 31
14 15 16 16 16 17 16 18 19 18 18 18 18 18 19 19 20 21 21 21 22 23 23 24 25 25 26 26 27 28 28 29 30 30 31 31 31 31 31 31 31 30 30 29 29 30 30 30 31
13 14 15 15 16 16 15 16 19 18 18 17 17 17 18 19 19 20 21 21 22 22 22 23 24 24 24 25 26 28 29 29 30 30 30 31 31 32 31 31 31 31 30 30 29 30 29 29 29
14 14 14 15 15 15 15 16 17 17 16 17 16 16 17 18 19 20 20 21 21 22 23 23 24 24 24 25 26 27 28 28 28 28 29 30 30 31 30 30 31 30 29 29 28 29 29 29 29

GEFSSGP_500_meanwind_150.txt.gz
Wind_Speed
14 13 12 11 10 7 5 5 9 11 12 11 10 10 9 8 7 7 8 7 7 7 8 8 9 9 9 10 10 10 10 11 11 11 11 11 11 11 11 10 9 9 8 7 7 6 6 6 6
14 14 13 12 10 7 5 8 12 14 13 11 11 11 10 9 9 9 9 9 9 9 9 10 10 11 11 11 11 11 11 11 12 12 12 12 12 11 11 11 11 10 9 9 8 7 7 7 7
14 14 14 13 10 7 7 11 16 16 13 13 12 12 10 10 10 10 10 11 11 11 11 11 11 12 12 13 13 12 12 12 13 13 13 13 12 12 12 12 11 11 11 10 10 9 9 9 8
15 15 14 13 11 9 11 15 18 17 15 14 13 12 11 11 11 12 12 12 12 12 13 13 13 13 14 14 14 14 14 13 13 13 13 14 13 13 13 13 13 12 12 12 12 11 11 11 11
15 14 14 11 11 12 16 17 18 17 16 14 14 13 12 12 12 13 13 13 13 14 14 14 14 15 15 15 15 15 15 15 14 14 14 14 14 14 14 13 13 13 13 13 13 13 13 13 13
14 14 12 10 12 16 18 18 16 15 17 17 17 15 14 12 13 13 13 14 15 15 16 16 16 16 16 16 16 17 16 16 16 16 15 15 15 14 14 14 14 14 15 15 15 15 15 15 15
14 14 11 10 12 17 18 19 18 17 18 18 17 16 14 13 14 14 15 15 16 16 17 16 17 17 17 18 18 18 18 18 17 17 17 16 16 15 15 15 16 16 16 17 17 17 16 17 17
14 14 12 10 12 17 19 20 19 18 19 18 18 16 15 14 15 16 16 17 17 17 17 17 17 18 18 18 18 19 19 19 18 18 18 17 17 16 16 16 17 17 17 18 19 18 18 18 18
14 13 11 10 14 18 19 20 20 19 19 19 19 17 15 15 16 17 18 18 18 18 18 18 19 19 19 19 20 20 20 20 20 19 19 18 18 18 17 18 18 18 19 19 20 20 19 19 20
14 10 9 14 17 18 20 21 19 19 20 20 19 17 16 17 18 19 19 19 20 20 20 20 20 20 20 20 21 21 21 21 21 20 20 19 19 19 19 19 19 20 20 20 20 21 21 21 21
14 13 15 19 22 22 21 19 19 20 21 21 19 17 17 18 19 20 20 20 21 21 21 21 21 21 21 21 21 22 23 22 22 22 21 20 20 20 20 20 20 21 21 21 21 22 22 22 22
15 16 18 20 22 22 21 19 19 21 22 21 20 20 19 20 21 21 21 21 22 22 22 22 22 22 22 22 23 24 24 23 21 21 22 22 21 22 22 21 22 21 21 21 22 22 23 23 22
17 18 19 21 21 21 21 20 20 21 22 22 21 20 21 21 21 21 21 22 22 23 23 23 24 24 25 25 25 25 24 23 23 23 23 23 23 23 23 23 24 23 22 22 22 23 22 23 24
17 17 18 20 20 19 20 18 20 21 22 22 21 22 21 21 22 23 23 23 23 23 24 24 25 26 26 26 25 25 24 23 23 23 23 24 24 25 25 25 24 24 24 23 23 24 24 25 25
14 14 15 16 17 18 18 17 20 21 21 22 22 23 22 22 23 23 23 24 23 23 24 24 25 26 26 26 25 26 25 24 24 24 23 24 26 26 26 25 25 25 24 24 24 25 25 26 25
10 11 12 14 17 18 17 17 19 22 23 22 22 22 23 23 23 24 24 24 24 24 24 26 26 26 26 26 26 26 26 25 25 26 25 25 26 27 27 26 26 25 25 26 26 26 26 26 26
8 8 10 13 16 16 17 16 20 22 22 22 21 23 24 24 24 25 25 25 25 25 25 26 26 26 27 27 28 27 27 27 27 27 26 26 27 28 28 27 27 27 27 27 28 28 28 28 28
7 8 11 13 16 16 17 17 19 20 22 21 22 23 24 24 25 25 25 25 25 25 25 25 26 26 27 27 27 27 28 28 28 28 28 28 28 29 30 29 28 28 28 28 29 29 28 29 29
10 10 13 14 15 17 17 18 19 17 19 22 23 24 24 25 25 25 25 24 25 26 26 27 27 27 27 28 27 28 28 29 29 29 30 29 29 30 30 30 30 30 30 30 30 30 30 30 30
11 12 14 14 15 18 18 18 19 18 20 22 24 25 24 25 26 26 26 26 26 26 27 26 27 28 28 29 29 29 29 29 29 29 30 30 31 31 31 31 31 32 31 30 30 31 32 31 31
10 11 14 15 16 17 17 19 19 21 22 23 24 25 25 25 26 27 27 28 28 28 28 28 29 29 30 30 30 31 31 31 31 30 31 31 31 31 31 31 31 31 31 31 31 32 33 32 32
11 13 15 16 16 15 16 18 20 21 23 24 24 25 25 26 27 27 28 28 29 29 29 29 30 30 30 31 31 32 32 32 32 31 30 30 30 30 31 31 31 32 32 31 32 32 33 33 33
13 15 15 15 15 16 16 19 22 22 23 25 26 25 25 28 29 28 27 28 29 29 28 29 29 30 31 31 31 32 32 32 31 31 31 31 30 31 31 30 31 31 32 32 32 32 32 33 33
14 15 14 14 15 18 19 22 22 21 23 25 25 25 26 27 27 26 27 28 28 28 28 29 29 30 31 32 32 32 32 32 32 32 31 31 31 30 30 31 31 31 31 31 31 31 32 33 33
14 13 14 15 16 19 19 20 21 21 24 25 26 26 27 26 27 26 26 26 26 26 27 28 29 30 30 31 31 31 31 32 32 32 32 32 31 31 31 32 32 31 31 32 32 31 31 31 31
13 12 15 17 16 18 18 19 20 22 22 24 26 27 27 27 26 25 25 25 25 26 26 27 27 28 29 30 30 30 31 31 31 32 32 32 32 31 31 30 31 31 32 32 32 32 31 30 30
13 13 15 18 18 18 17 20 23 24 22 23 25 27 27 26 25 25 25 24 24 25 26 26 27 28 29 29 29 29 30 30 31 31 32 31 30 30 30 30 30 30 30 30 30 30 30 29 29
14 15 14 16 18 19 18 21 23 24 24 22 23 25 25 24 23 23 23 24 24 25 26 26 27 28 29 29 29 29 29 28 28 29 30 29 28 29 30 29 30 30 30 29 29 29 29 28 28
15 15 16 17 18 19 20 21 22 24 24 24 24 23 23 23 23 23 24 24 25 26 26 26 27 28 28 28 28 28 27 27 28 28 28 28 28 29 29 29 29 30 29 29 29 29 29 29 29
14 15 16 18 18 19 20 20 19 22 22 23 23 22 23 23 23 22 22 23 24 24 25 25 26 26 26 26 26 26 27 27 28 27 27 28 29 29 29 29 28 28 28 28 28 28 28 29 29

GEFSSGP_500_meanwind_156.txt.gz
Wind_Speed
16 15 15 14 13 12 11 10 9 7 7 7 8 8 7 7 7 7 7 6 7 6 6 7 8 8 8 9 9 10 10 11 11 12 12 13 13 14 14 14 14 14 14 13 13 12 12 11 11
17 16 16 15 15 14 12 11 10 9 9 9 9 10 10 9 8 8 8 8 8 8 8 8 9 9 9 10 11 11 11 12 12 12 12 13 13 14 14 14 14 14 14 13 13 13 13 12 12
18 17 17 17 16 15 14 13 12 12 11 11 12 12 12 10 9 9 9 10 10 10 10 10 10 11 11 11 12 12 13 13 13 13 13 13 14 14 15 15 15 14 14 14 14 14 14 13 13
19 18 18 17 17 16 15 15 14 14 14 14 13 13 11 10 9 9 10 11 11 12 12 12 12 12 12 13 13 13 14 14 14 14 14 15 15 15 16 16 15 15 15 15 15 15 15 15 14
19 19 18 18 18 17 16 15 15 15 15 15 14 14 14 12 11 11 12 12 12 12 13 13 13 13 13 14 14 15 15 15 15 15 16 16 16 16 17 17 16 16 16 16 16 16 16 16 16
19 18 18 18 19 18 18 17 17 16 16 16 16 16 16 14 13 12 13 13 13 12 13 14 14 14 15 15 16 16 15 15 16 16 16 16 16 17 17 17 17 16 16 16 17 17 17 17 17
18 18 18 19 20 19 18 17 18 17 18 18 17 17 16 15 14 13 13 13 13 13 14 14 14 15 16 16 17 16 16 16 17 17 17 17 18 18 18 18 17 17 17 17 18 18 18 19 18
18 18 19 20 19 17 17 17 18 18 19 19 19 19 18 16 15 14 13 13 14 15 15 16 16 16 17 17 17 17 17 18 18 18 18 18 19 19 19 18 19 18 18 18 18 18 19 20 20
18 19 19 20 19 17 17 17 17 18 21 20 21 19 18 16 14 12 13 14 15 16 16 17 17 17 18 18 18 18 17 18 19 19 19 19 20 20 20 19 20 19 19 19 20 20 20 20 20
19 19 18 18 18 17 17 17 18 20 21 21 19 19 18 15 14 14 14 15 15 16 17 18 18 19 19 19 19 19 19 19 20 19 20 21 21 20 20 20 19 19 20 20 20 21 21 21 21
20 18 17 18 17 18 19 19 19 21 21 18 18 18 19 16 15 15 16 16 17 17 18 19 19 19 20 20 19 19 20 21 21 21 22 22 22 21 21 20 20 20 21 21 21 21 21 21 21
20 18 18 18 19 20 20 20 21 22 23 23 22 20 19 16 16 17 17 18 18 19 19 19 20 21 20 21 20 21 21 22 23 23 23 22 22 22 22 22 22 21 21 21 22 22 22 22 21
20 18 19 19 19 19 20 21 22 23 23 25 22 19 19 18 18 19 19 19 19 19 20 20 21 22 22 21 21 22 22 22 22 22 22 22 23 23 23 23 23 23 23 23 22 23 23 23 23
18 18 18 17 18 19 20 21 21 21 22 23 23 22 21 19 20 20 20 20 19 20 20 21 22 22 22 22 22 21 21 22 22 22 22 22 23 24 24 24 25 24 24 23 23 23 23 23 23
17 16 15 15 15 17 19 19 20 20 22 22 21 21 22 22 21 20 21 21 20 21 21 22 22 22 22 22 23 22 21 21 22 22 23 23 24 24 24 24 25 25 24 24 24 24 24 24 24
15 15 14 14 15 15 16 18 19 19 18 19 20 20 21 20 19 19 20 20 21 22 22 21 21 23 23 23 23 24 23 22 22 23 24 25 26 26 26 25 25 25 25 25 25 26 26 26 26
14 14 13 13 14 14 15 16 18 20 18 18 18 18 18 18 19 20 20 21 20 21 22 22 23 23 24 24 23 24 24 24 24 25 26 26 26 26 26 25 25 25 25 25 26 27 27 28 27
12 13 14 14 14 14 15 15 17 18 18 19 18 17 17 19 19 20 21 21 22 22 22 23 24 23 23 23 24 25 26 26 25 25 26 27 27 28 28 26 26 26 26 27 27 28 28 29 28
11 12 12 13 14 15 15 16 17 18 18 18 19 18 17 18 18 19 21 21 22 23 23 24 24 24 24 24 25 26 27 26 26 26 27 28 28 27 28 28 28 28 28 29 29 29 28 29 29
11 11 12 13 15 16 16 18 18 18 19 20 20 18 19 19 20 20 22 22 23 24 25 25 25 26 26 26 26 27 28 27 28 28 29 29 29 29 30 29 28 28 29 29 30 30 29 29 29
12 11 12 14 15 17 17 18 18 18 18 19 19 19 20 20 21 22 23 23 24 24 25 25 25 26 26 26 27 27 28 28 29 29 30 30 30 30 29 29 29 29 30 29 28 28 28 29 29
12 12 12 13 15 15 17 18 16 18 19 19 19 20 20 21 21 21 23 23 24 24 25 25 26 26 27 27 27 28 28 29 29 30 31 31 31 31 30 30 30 30 29 29 29 29 29 28 29
13 13 14 15 15 17 17 19 16 17 19 19 20 20 21 22 22 23 23 23 25 26 25 25 26 26 27 27 28 28 28 29 30 31 31 31 31 31 30 30 30 30 29 29 29 29 30 29 29
13 13 14 15 17 17 16 19 18 18 20 20 21 21 22 23 22 23 23 24 24 24 25 26 26 26 26 27 27 28 29 29 30 30 30 30 30 30 29 29 29 29 30 29 28 29 29 29 29
13 14 15 15 16 16 17 19 19 19 18 18 20 20 20 21 21 22 23 24 24 24 25 25 25 25 26 27 28 28 28 28 28 28 28 28 29 28 28 28 28 29 29 29 29 28 28 29 29
13 14 15 17 17 17 18 19 19 18 18 19 19 20 20 20 20 20 21 23 23 24 24 25 25 26 27 27 28 28 28 28 28 28 28 27 27 27 27 27 27 28 28 28 28 28 28 29 28
14 15 16 17 18 18 18 18 18 18 18 19 20 20 19 20 21 21 22 23 24 25 25 25 25 25 26 27 27 28 28 28 28 28 28 27 27 27 27 27 26 26 26 26 26 26 27 27 27
16 17 16 16 18 18 17 17 19 18 19 19 18 18 19 20 21 20 21 23 24 25 25 25 25 26 25 25 26 26 27 27 27 27 27 27 26 26 25 25 25 25 24 24 25 25 25 25 25
16 17 17 17 18 20 20 18 17 18 16 17 18 19 19 19 20 21 22 23 23 23 23 23 25 25 25 25 25 26 25 26 26 25 25 25 24 24 24 24 24 24 24 24 24 23 24 24 23
16 16 17 18 18 19 20 18 16 16 16 17 18 19 19 20 21 21 21 21 22 22 22 23 24 24 24 24 25 25 25 24 23 23 22 23 23 23 23 23 22 22 22 22 22 23 23 23 23